Wetterdaten: Freitag, 26.08.2016
Datum Zeit Temp. Aussen Temp. o. S. +5cm Feuchte Auss BlattFeu 1 Luftdruck Regen Sonnenschein Regendauer Solar Windben Empfang
26.08.2016 00:00 24,6 C 23,9 C 21,1 C 66 % 0 lf 1013,0 hPa 0,0 l/m 0 min 0 min 5 W/m 8,4 km/h (2 Bft) 98,00 %
26.08.2016 00:02 24,5 C 23,9 C 21,1 C 66 % 0 lf 1013,1 hPa 0,0 l/m 0 min 0 min 5 W/m 8,4 km/h (2 Bft) 100,00 %
26.08.2016 00:05 24,4 C 23,9 C 21,1 C 66 % 0 lf 1013,0 hPa 0,0 l/m 0 min 0 min 5 W/m 10,5 km/h (2 Bft) 100,00 %
26.08.2016 00:06 24,4 C 23,9 C 21,1 C 66 % 0 lf 1013,0 hPa 0,0 l/m 0 min 0 min 5 W/m 10,5 km/h (2 Bft) 100,00 %
26.08.2016 00:08 24,4 C 23,9 C 21,1 C 66 % 0 lf 1013,0 hPa 0,0 l/m 0 min 0 min 5 W/m 8,4 km/h (2 Bft) 97,83 %
26.08.2016 00:10 24,3 C 23,9 C 21,1 C 66 % 0 lf 1013,0 hPa 0,0 l/m 0 min 0 min 5 W/m 8,4 km/h (2 Bft) 97,87 %
26.08.2016 00:12 24,3 C 23,9 C 21,1 C 66 % 0 lf 1013,0 hPa 0,0 l/m 0 min 0 min 5 W/m 8,4 km/h (2 Bft) 100,00 %
26.08.2016 00:14 24,3 C 23,9 C 21,1 C 66 % 0 lf 1013,0 hPa 0,0 l/m 0 min 0 min 5 W/m 8,4 km/h (2 Bft) 100,00 %
26.08.2016 00:16 24,3 C 23,9 C 21,1 C 66 % 0 lf 1013,0 hPa 0,0 l/m 0 min 0 min 5 W/m 8,4 km/h (2 Bft) 100,00 %
26.08.2016 00:18 24,2 C 23,9 C 21,1 C 67 % 0 lf 1013,1 hPa 0,0 l/m 0 min 0 min 5 W/m 8,4 km/h (2 Bft) 97,87 %
26.08.2016 00:20 24,2 C 23,9 C 21,1 C 67 % 0 lf 1013,1 hPa 0,0 l/m 0 min 0 min 5 W/m 12,6 km/h (3 Bft) 97,83 %
26.08.2016 00:22 24,2 C 23,9 C 21,1 C 67 % 0 lf 1013,1 hPa 0,0 l/m 0 min 0 min 5 W/m 8,4 km/h (2 Bft) 97,87 %
26.08.2016 00:24 24,1 C 23,9 C 21,1 C 67 % 0 lf 1013,0 hPa 0,0 l/m 0 min 0 min 5 W/m 6,3 km/h (2 Bft) 100,00 %
26.08.2016 00:26 24,1 C 23,3 C 21,1 C 67 % 0 lf 1013,0 hPa 0,0 l/m 0 min 0 min 5 W/m 10,5 km/h (2 Bft) 100,00 %
26.08.2016 00:28 24,1 C 23,3 C 21,1 C 67 % 0 lf 1013,1 hPa 0,0 l/m 0 min 0 min 5 W/m 8,4 km/h (2 Bft) 100,00 %
26.08.2016 00:30 24,1 C 23,3 C 21,1 C 67 % 0 lf 1013,0 hPa 0,0 l/m 0 min 0 min 5 W/m 8,4 km/h (2 Bft) 100,00 %
26.08.2016 00:32 24,0 C 23,3 C 21,1 C 68 % 0 lf 1013,0 hPa 0,0 l/m 0 min 0 min 5 W/m 6,3 km/h (2 Bft) 93,62 %
26.08.2016 00:34 24,0 C 23,3 C 21,1 C 68 % 0 lf 1013,0 hPa 0,0 l/m 0 min 0 min 5 W/m 8,4 km/h (2 Bft) 97,87 %
26.08.2016 00:36 23,9 C 23,3 C 21,1 C 68 % 0 lf 1013,0 hPa 0,0 l/m 0 min 0 min 5 W/m 10,5 km/h (2 Bft) 98,00 %
26.08.2016 00:38 23,9 C 23,3 C 20,6 C 68 % 0 lf 1013,0 hPa 0,0 l/m 0 min 0 min 5 W/m 10,5 km/h (2 Bft) 93,62 %
26.08.2016 00:40 23,9 C 23,3 C 20,6 C 68 % 0 lf 1013,1 hPa 0,0 l/m 0 min 0 min 5 W/m 8,4 km/h (2 Bft) 95,74 %
26.08.2016 00:42 23,8 C 23,3 C 20,6 C 68 % 0 lf 1013,0 hPa 0,0 l/m 0 min 0 min 5 W/m 8,4 km/h (2 Bft) 93,48 %
26.08.2016 00:44 23,8 C 23,3 C 20,6 C 68 % 0 lf 1013,0 hPa 0,0 l/m 0 min 0 min 5 W/m 8,4 km/h (2 Bft) 91,49 %
26.08.2016 00:46 23,8 C 22,8 C 20,6 C 68 % 0 lf 1013,0 hPa 0,0 l/m 0 min 0 min 5 W/m 10,5 km/h (2 Bft) 95,74 %
26.08.2016 00:48 23,8 C 22,8 C 20,6 C 68 % 0 lf 1013,1 hPa 0,0 l/m 0 min 0 min 5 W/m 8,4 km/h (2 Bft) 93,62 %
26.08.2016 00:50 23,7 C 22,8 C 20,6 C 69 % 0 lf 1013,1 hPa 0,0 l/m 0 min 0 min 5 W/m 6,3 km/h (2 Bft) 93,62 %
26.08.2016 00:52 23,7 C 22,8 C 20,0 C 69 % 0 lf 1013,1 hPa 0,0 l/m 0 min 0 min 5 W/m 8,4 km/h (2 Bft) 93,62 %
26.08.2016 00:54 23,6 C 22,8 C 20,0 C 69 % 0 lf 1013,1 hPa 0,0 l/m 0 min 0 min 5 W/m 8,4 km/h (2 Bft) 95,65 %
26.08.2016 00:56 23,6 C 22,8 C 20,6 C 69 % 0 lf 1013,1 hPa 0,0 l/m 0 min 0 min 5 W/m 8,4 km/h (2 Bft) 95,74 %
26.08.2016 00:58 23,6 C 22,8 C 20,6 C 69 % 0 lf 1013,1 hPa 0,0 l/m 0 min 0 min 5 W/m 8,4 km/h (2 Bft) 95,74 %
26.08.2016 01:00 23,5 C 22,8 C 20,6 C 69 % 0 lf 1013,0 hPa 0,0 l/m 0 min 0 min 5 W/m 8,4 km/h (2 Bft) 93,62 %
26.08.2016 01:02 23,5 C 22,8 C 20,6 C 69 % 0 lf 1013,1 hPa 0,0 l/m 0 min 0 min 5 W/m 6,3 km/h (2 Bft) 95,83 %
26.08.2016 01:04 23,4 C 22,8 C 20,6 C 69 % 0 lf 1013,0 hPa 0,0 l/m 0 min 0 min 5 W/m 6,3 km/h (2 Bft) 93,48 %
26.08.2016 01:06 23,4 C 22,8 C 20,0 C 69 % 0 lf 1013,0 hPa 0,0 l/m 0 min 0 min 5 W/m 6,3 km/h (2 Bft) 92,00 %
26.08.2016 01:08 23,4 C 22,8 C 20,0 C 69 % 0 lf 1013,0 hPa 0,0 l/m 0 min 0 min 5 W/m 6,3 km/h (2 Bft) 89,36 %
26.08.2016 01:10 23,3 C 22,8 C 20,0 C 69 % 0 lf 1013,1 hPa 0,0 l/m 0 min 0 min 5 W/m 8,4 km/h (2 Bft) 97,83 %
26.08.2016 01:12 23,3 C 22,8 C 20,0 C 70 % 0 lf 1013,1 hPa 0,0 l/m 0 min 0 min 5 W/m 6,3 km/h (2 Bft) 95,74 %
26.08.2016 01:14 23,3 C 22,8 C 20,0 C 70 % 0 lf 1013,0 hPa 0,0 l/m 0 min 0 min 5 W/m 6,3 km/h (2 Bft) 91,49 %
26.08.2016 01:16 23,3 C 22,2 C 19,4 C 70 % 0 lf 1013,0 hPa 0,0 l/m 0 min 0 min 5 W/m 6,3 km/h (2 Bft) 93,48 %
26.08.2016 01:18 23,2 C 22,2 C 19,4 C 70 % 0 lf 1013,0 hPa 0,0 l/m 0 min 0 min 5 W/m 6,3 km/h (2 Bft) 95,74 %
26.08.2016 01:20 23,2 C 22,2 C 19,4 C 70 % 0 lf 1013,0 hPa 0,0 l/m 0 min 0 min 5 W/m 6,3 km/h (2 Bft) 95,74 %
26.08.2016 01:22 23,2 C 22,8 C 19,4 C 70 % 0 lf 1013,0 hPa 0,0 l/m 0 min 0 min 5 W/m 6,3 km/h (2 Bft) 89,36 %
26.08.2016 01:24 23,1 C 22,8 C 19,4 C 70 % 0 lf 1013,1 hPa 0,0 l/m 0 min 0 min 5 W/m 8,4 km/h (2 Bft) 93,62 %
26.08.2016 01:26 23,1 C 22,2 C 19,4 C 70 % 0 lf 1013,1 hPa 0,0 l/m 0 min 0 min 5 W/m 6,3 km/h (2 Bft) 89,36 %
26.08.2016 01:28 23,1 C 22,2 C 19,4 C 70 % 0 lf 1013,1 hPa 0,0 l/m 0 min 0 min 5 W/m 6,3 km/h (2 Bft) 95,65 %
26.08.2016 01:30 23,0 C 22,2 C 19,4 C 71 % 0 lf 1013,1 hPa 0,0 l/m 0 min 0 min 5 W/m 6,3 km/h (2 Bft) 87,23 %
26.08.2016 01:32 23,0 C 22,8 C 19,4 C 70 % 0 lf 1013,0 hPa 0,0 l/m 0 min 0 min 5 W/m 8,4 km/h (2 Bft) 91,43 %
26.08.2016 01:34 22,9 C 22,8 C 20,0 C 71 % 0 lf 1013,0 hPa 0,0 l/m 0 min 0 min 5 W/m 12,6 km/h (3 Bft) 91,49 %
26.08.2016 01:36 22,9 C 22,8 C 20,0 C 71 % 0 lf 1013,0 hPa 0,0 l/m 0 min 0 min 5 W/m 8,4 km/h (2 Bft) 94,44 %
26.08.2016 01:38 22,9 C 22,8 C 20,0 C 71 % 0 lf 1013,0 hPa 0,0 l/m 0 min 0 min 5 W/m 10,5 km/h (2 Bft) 95,74 %
26.08.2016 01:40 22,9 C 22,8 C 20,0 C 71 % 0 lf 1013,0 hPa 0,0 l/m 0 min 0 min 5 W/m 8,4 km/h (2 Bft) 95,65 %
26.08.2016 01:42 22,8 C 22,8 C 20,0 C 71 % 0 lf 1013,1 hPa 0,0 l/m 0 min 0 min 5 W/m 10,5 km/h (2 Bft) 93,62 %
26.08.2016 01:44 22,8 C 22,2 C 20,0 C 71 % 0 lf 1013,0 hPa 0,0 l/m 0 min 0 min 5 W/m 10,5 km/h (2 Bft) 93,62 %
26.08.2016 01:46 22,8 C 22,2 C 20,0 C 71 % 0 lf 1013,0 hPa 0,0 l/m 0 min 0 min 5 W/m 8,4 km/h (2 Bft) 91,49 %
26.08.2016 01:48 22,8 C 22,2 C 20,0 C 71 % 0 lf 1013,0 hPa 0,0 l/m 0 min 0 min 5 W/m 8,4 km/h (2 Bft) 95,74 %
26.08.2016 01:50 22,8 C 22,2 C 20,0 C 71 % 0 lf 1013,0 hPa 0,0 l/m 0 min 0 min 5 W/m 8,4 km/h (2 Bft) 95,74 %
26.08.2016 01:52 22,7 C 22,2 C 20,0 C 71 % 0 lf 1013,0 hPa 0,0 l/m 0 min 0 min 5 W/m 10,5 km/h (2 Bft) 95,65 %
26.08.2016 01:54 22,7 C 22,2 C 20,0 C 71 % 0 lf 1013,0 hPa 0,0 l/m 0 min 0 min 5 W/m 10,5 km/h (2 Bft) 97,87 %
26.08.2016 01:56 22,7 C 22,2 C 20,0 C 71 % 0 lf 1013,0 hPa 0,0 l/m 0 min 0 min 5 W/m 10,5 km/h (2 Bft) 97,87 %
26.08.2016 01:58 22,7 C 22,2 C 20,0 C 71 % 0 lf 1013,0 hPa 0,0 l/m 0 min 0 min 5 W/m 8,4 km/h (2 Bft) 93,62 %
26.08.2016 02:00 22,7 C 22,2 C 20,0 C 71 % 0 lf 1013,1 hPa 0,0 l/m 0 min 0 min 5 W/m 8,4 km/h (2 Bft) 93,02 %
26.08.2016 02:02 22,7 C 22,2 C 20,0 C 72 % 0 lf 1013,1 hPa 0,0 l/m 0 min 0 min 5 W/m 8,4 km/h (2 Bft) 96,00 %
26.08.2016 02:04 22,6 C 22,2 C 20,0 C 72 % 0 lf 1013,0 hPa 0,0 l/m 0 min 0 min 5 W/m 8,4 km/h (2 Bft) 95,83 %
26.08.2016 02:06 22,6 C 22,2 C 20,0 C 72 % 0 lf 1013,0 hPa 0,0 l/m 0 min 0 min 5 W/m 6,3 km/h (2 Bft) 95,83 %
26.08.2016 02:08 22,6 C 22,2 C 20,0 C 72 % 0 lf 1013,0 hPa 0,0 l/m 0 min 0 min 5 W/m 8,4 km/h (2 Bft) 97,87 %
26.08.2016 02:10 22,6 C 22,2 C 20,0 C 72 % 0 lf 1013,0 hPa 0,0 l/m 0 min 0 min 5 W/m 6,3 km/h (2 Bft) 95,74 %
26.08.2016 02:12 22,6 C 22,2 C 19,4 C 72 % 0 lf 1013,0 hPa 0,0 l/m 0 min 0 min 5 W/m 12,6 km/h (3 Bft) 97,87 %
26.08.2016 02:14 22,6 C 22,2 C 19,4 C 72 % 0 lf 1013,0 hPa 0,0 l/m 0 min 0 min 5 W/m 6,3 km/h (2 Bft) 97,87 %
26.08.2016 02:16 22,5 C 22,2 C 19,4 C 72 % 0 lf 1013,0 hPa 0,0 l/m 0 min 0 min 5 W/m 8,4 km/h (2 Bft) 97,83 %
26.08.2016 02:18 22,5 C 22,2 C 19,4 C 72 % 0 lf 1013,0 hPa 0,0 l/m 0 min 0 min 5 W/m 8,4 km/h (2 Bft) 100,00 %
26.08.2016 02:20 22,4 C 21,7 C 19,4 C 72 % 0 lf 1012,9 hPa 0,0 l/m 0 min 0 min 5 W/m 10,5 km/h (2 Bft) 95,74 %
26.08.2016 02:22 22,4 C 21,7 C 19,4 C 72 % 0 lf 1013,0 hPa 0,0 l/m 0 min 0 min 5 W/m 8,4 km/h (2 Bft) 100,00 %
26.08.2016 02:24 22,4 C 21,7 C 19,4 C 72 % 0 lf 1012,9 hPa 0,0 l/m 0 min 0 min 5 W/m 6,3 km/h (2 Bft) 100,00 %
26.08.2016 02:26 22,4 C 21,7 C 19,4 C 73 % 0 lf 1012,9 hPa 0,0 l/m 0 min 0 min 5 W/m 8,4 km/h (2 Bft) 100,00 %
26.08.2016 02:28 22,3 C 21,7 C 19,4 C 73 % 0 lf 1012,9 hPa 0,0 l/m 0 min 0 min 5 W/m 6,3 km/h (2 Bft) 100,00 %
26.08.2016 02:30 22,3 C 21,7 C 19,4 C 73 % 0 lf 1012,9 hPa 0,0 l/m 0 min 0 min 5 W/m 8,4 km/h (2 Bft) 95,74 %
26.08.2016 02:32 22,3 C 21,7 C 19,4 C 73 % 0 lf 1013,0 hPa 0,0 l/m 0 min 0 min 5 W/m 10,5 km/h (2 Bft) 93,62 %
26.08.2016 02:34 22,2 C 21,7 C 19,4 C 73 % 0 lf 1012,9 hPa 0,0 l/m 0 min 0 min 5 W/m 10,5 km/h (2 Bft) 97,87 %
26.08.2016 02:36 22,2 C 21,7 C 19,4 C 73 % 0 lf 1012,9 hPa 0,0 l/m 0 min 0 min 5 W/m 8,4 km/h (2 Bft) 97,87 %
26.08.2016 02:38 22,2 C 21,1 C 19,4 C 73 % 0 lf 1012,9 hPa 0,0 l/m 0 min 0 min 5 W/m 6,3 km/h (2 Bft) 97,87 %
26.08.2016 02:40 22,1 C 21,1 C 18,9 C 74 % 0 lf 1012,9 hPa 0,0 l/m 0 min 0 min 0 W/m 8,4 km/h (2 Bft) 97,83 %
26.08.2016 02:42 22,1 C 21,1 C 18,9 C 74 % 0 lf 1012,9 hPa 0,0 l/m 0 min 0 min 5 W/m 8,4 km/h (2 Bft) 97,87 %
26.08.2016 02:44 22,0 C 21,1 C 18,9 C 74 % 0 lf 1012,9 hPa 0,0 l/m 0 min 0 min 5 W/m 8,4 km/h (2 Bft) 97,87 %
26.08.2016 02:46 22,0 C 21,1 C 18,9 C 74 % 0 lf 1012,9 hPa 0,0 l/m 0 min 0 min 5 W/m 8,4 km/h (2 Bft) 98,11 %
26.08.2016 02:48 21,9 C 21,1 C 18,9 C 74 % 0 lf 1012,9 hPa 0,0 l/m 0 min 0 min 5 W/m 10,5 km/h (2 Bft) 97,87 %
26.08.2016 02:50 21,9 C 21,1 C 18,9 C 74 % 0 lf 1012,8 hPa 0,0 l/m 0 min 0 min 5 W/m 10,5 km/h (2 Bft) 93,48 %
26.08.2016 02:52 21,8 C 21,1 C 18,9 C 74 % 0 lf 1012,9 hPa 0,0 l/m 0 min 0 min 0 W/m 8,4 km/h (2 Bft) 97,87 %
26.08.2016 02:54 21,8 C 21,1 C 18,9 C 74 % 0 lf 1012,8 hPa 0,0 l/m 0 min 0 min 0 W/m 8,4 km/h (2 Bft) 97,87 %
26.08.2016 02:56 21,8 C 21,1 C 18,9 C 75 % 0 lf 1012,9 hPa 0,0 l/m 0 min 0 min 0 W/m 10,5 km/h (2 Bft) 97,87 %
26.08.2016 02:58 21,7 C 21,1 C 18,9 C 75 % 0 lf 1012,9 hPa 0,0 l/m 0 min 0 min 0 W/m 8,4 km/h (2 Bft) 97,87 %
26.08.2016 03:00 21,7 C 21,1 C 18,9 C 75 % 0 lf 1013,0 hPa 0,0 l/m 0 min 0 min 0 W/m 8,4 km/h (2 Bft) 93,18 %
26.08.2016 03:02 21,7 C 21,1 C 18,9 C 75 % 0 lf 1013,0 hPa 0,0 l/m 0 min 0 min 0 W/m 6,3 km/h (2 Bft) 97,96 %
26.08.2016 03:04 21,6 C 21,1 C 18,9 C 75 % 0 lf 1013,0 hPa 0,0 l/m 0 min 0 min 0 W/m 10,5 km/h (2 Bft) 100,00 %
26.08.2016 03:06 21,6 C 21,1 C 18,9 C 75 % 0 lf 1013,0 hPa 0,0 l/m 0 min 0 min 0 W/m 8,4 km/h (2 Bft) 97,87 %
26.08.2016 03:08 21,6 C 21,1 C 18,9 C 75 % 0 lf 1013,0 hPa 0,0 l/m 0 min 0 min 0 W/m 6,3 km/h (2 Bft) 95,74 %
26.08.2016 03:10 21,5 C 20,6 C 18,9 C 75 % 0 lf 1013,0 hPa 0,0 l/m 0 min 0 min 0 W/m 6,3 km/h (2 Bft) 100,00 %
26.08.2016 03:12 21,5 C 20,6 C 18,3 C 75 % 0 lf 1013,0 hPa 0,0 l/m 0 min 0 min 0 W/m 6,3 km/h (2 Bft) 97,87 %
26.08.2016 03:14 21,4 C 20,6 C 18,3 C 76 % 0 lf 1013,0 hPa 0,0 l/m 0 min 0 min 0 W/m 8,4 km/h (2 Bft) 97,87 %
26.08.2016 03:16 21,4 C 20,6 C 18,3 C 76 % 0 lf 1013,0 hPa 0,0 l/m 0 min 0 min 0 W/m 8,4 km/h (2 Bft) 100,00 %
26.08.2016 03:18 21,4 C 20,6 C 18,3 C 76 % 0 lf 1013,0 hPa 0,0 l/m 0 min 0 min 0 W/m 6,3 km/h (2 Bft) 93,62 %
26.08.2016 03:20 21,3 C 20,6 C 18,3 C 76 % 0 lf 1013,0 hPa 0,0 l/m 0 min 0 min 0 W/m 6,3 km/h (2 Bft) 97,87 %
26.08.2016 03:22 21,3 C 20,6 C 18,3 C 76 % 0 lf 1013,0 hPa 0,0 l/m 0 min 0 min 0 W/m 6,3 km/h (2 Bft) 100,00 %
26.08.2016 03:24 21,3 C 20,6 C 18,3 C 76 % 0 lf 1013,0 hPa 0,0 l/m 0 min 0 min 0 W/m 6,3 km/h (2 Bft) 100,00 %
26.08.2016 03:26 21,2 C 20,6 C 18,3 C 76 % 0 lf 1013,1 hPa 0,0 l/m 0 min 0 min 5 W/m 8,4 km/h (2 Bft) 100,00 %
26.08.2016 03:28 21,2 C 20,6 C 18,3 C 76 % 0 lf 1013,0 hPa 0,0 l/m 0 min 0 min 5 W/m 8,4 km/h (2 Bft) 97,83 %
26.08.2016 03:30 21,2 C 20,6 C 18,3 C 77 % 0 lf 1013,0 hPa 0,0 l/m 0 min 0 min 5 W/m 6,3 km/h (2 Bft) 100,00 %
26.08.2016 03:32 21,1 C 20,6 C 17,8 C 77 % 0 lf 1013,0 hPa 0,0 l/m 0 min 0 min 5 W/m 6,3 km/h (2 Bft) 100,00 %
26.08.2016 03:34 21,1 C 20,6 C 18,3 C 77 % 0 lf 1013,0 hPa 0,0 l/m 0 min 0 min 5 W/m 6,3 km/h (2 Bft) 100,00 %
26.08.2016 03:36 21,1 C 20,6 C 18,3 C 77 % 0 lf 1013,0 hPa 0,0 l/m 0 min 0 min 5 W/m 6,3 km/h (2 Bft) 100,00 %
26.08.2016 03:38 21,0 C 20,6 C 18,3 C 77 % 0 lf 1013,0 hPa 0,0 l/m 0 min 0 min 5 W/m 6,3 km/h (2 Bft) 100,00 %
26.08.2016 03:40 21,0 C 20,0 C 17,8 C 77 % 0 lf 1013,0 hPa 0,0 l/m 0 min 0 min 0 W/m 6,3 km/h (2 Bft) 97,87 %
26.08.2016 03:42 21,0 C 20,0 C 17,8 C 77 % 0 lf 1013,0 hPa 0,0 l/m 0 min 0 min 5 W/m 6,3 km/h (2 Bft) 100,00 %
26.08.2016 03:44 20,9 C 20,0 C 17,8 C 77 % 0 lf 1013,0 hPa 0,0 l/m 0 min 0 min 5 W/m 6,3 km/h (2 Bft) 100,00 %
26.08.2016 03:46 20,9 C 20,0 C 17,8 C 77 % 0 lf 1013,0 hPa 0,0 l/m 0 min 0 min 5 W/m 6,3 km/h (2 Bft) 97,87 %
26.08.2016 03:48 20,9 C 20,0 C 17,8 C 78 % 0 lf 1013,0 hPa 0,0 l/m 0 min 0 min 5 W/m 6,3 km/h (2 Bft) 93,48 %
26.08.2016 03:50 20,8 C 20,0 C 17,8 C 78 % 0 lf 1013,0 hPa 0,0 l/m 0 min 0 min 5 W/m 8,4 km/h (2 Bft) 97,87 %
26.08.2016 03:52 20,8 C 20,0 C 17,8 C 78 % 0 lf 1013,0 hPa 0,0 l/m 0 min 0 min 5 W/m 8,4 km/h (2 Bft) 93,62 %
26.08.2016 03:54 20,8 C 20,0 C 17,8 C 78 % 0 lf 1013,0 hPa 0,0 l/m 0 min 0 min 5 W/m 6,3 km/h (2 Bft) 97,87 %
26.08.2016 03:56 20,7 C 20,0 C 17,8 C 78 % 0 lf 1013,0 hPa 0,0 l/m 0 min 0 min 5 W/m 6,3 km/h (2 Bft) 97,87 %
26.08.2016 03:58 20,7 C 20,0 C 17,8 C 78 % 0 lf 1013,0 hPa 0,0 l/m 0 min 0 min 5 W/m 6,3 km/h (2 Bft) 97,87 %
26.08.2016 04:00 20,7 C 20,0 C 17,8 C 78 % 0 lf 1013,1 hPa 0,0 l/m 0 min 0 min 5 W/m 8,4 km/h (2 Bft) 97,62 %
26.08.2016 04:02 20,6 C 20,0 C 17,8 C 78 % 0 lf 1013,1 hPa 0,0 l/m 0 min 0 min 5 W/m 4,2 km/h (1 Bft) 100,00 %
26.08.2016 04:04 20,6 C 20,0 C 17,8 C 79 % 0 lf 1013,1 hPa 0,0 l/m 0 min 0 min 3 W/m 6,3 km/h (2 Bft) 95,74 %
26.08.2016 04:06 20,6 C 20,0 C 17,8 C 79 % 0 lf 1013,0 hPa 0,0 l/m 0 min 0 min 3 W/m 8,4 km/h (2 Bft) 97,37 %
26.08.2016 04:08 20,5 C 20,0 C 17,8 C 79 % 0 lf 1013,1 hPa 0,0 l/m 0 min 0 min 4 W/m 8,4 km/h (2 Bft) 91,49 %
26.08.2016 04:10 20,5 C 20,0 C 17,8 C 79 % 0 lf 1013,0 hPa 0,0 l/m 0 min 0 min 1 W/m 6,3 km/h (2 Bft) 91,49 %
26.08.2016 04:12 20,5 C 20,0 C 17,2 C 79 % 0 lf 1013,0 hPa 0,0 l/m 0 min 0 min 5 W/m 6,3 km/h (2 Bft) 95,74 %
26.08.2016 04:14 20,4 C 19,4 C 17,2 C 79 % 0 lf 1013,1 hPa 0,0 l/m 0 min 0 min 3 W/m 6,3 km/h (2 Bft) 93,48 %
26.08.2016 04:16 20,4 C 19,4 C 17,2 C 79 % 0 lf 1013,0 hPa 0,0 l/m 0 min 0 min 5 W/m 8,4 km/h (2 Bft) 95,74 %
26.08.2016 04:18 20,4 C 19,4 C 17,2 C 80 % 0 lf 1013,1 hPa 0,0 l/m 0 min 0 min 5 W/m 6,3 km/h (2 Bft) 95,74 %
26.08.2016 04:20 20,3 C 19,4 C 17,2 C 80 % 0 lf 1013,1 hPa 0,0 l/m 0 min 0 min 5 W/m 6,3 km/h (2 Bft) 93,62 %
26.08.2016 04:22 20,3 C 19,4 C 17,2 C 80 % 0 lf 1013,1 hPa 0,0 l/m 0 min 0 min 5 W/m 6,3 km/h (2 Bft) 93,62 %
26.08.2016 04:24 20,3 C 19,4 C 17,2 C 80 % 0 lf 1013,1 hPa 0,0 l/m 0 min 0 min 5 W/m 6,3 km/h (2 Bft) 95,74 %
26.08.2016 04:26 20,3 C 20,0 C 17,2 C 80 % 0 lf 1013,1 hPa 0,0 l/m 0 min 0 min 5 W/m 6,3 km/h (2 Bft) 93,48 %
26.08.2016 04:28 20,2 C 20,0 C 17,2 C 80 % 0 lf 1013,1 hPa 0,0 l/m 0 min 0 min 5 W/m 8,4 km/h (2 Bft) 91,49 %
26.08.2016 04:30 20,2 C 20,0 C 17,8 C 80 % 0 lf 1013,1 hPa 0,0 l/m 0 min 0 min 5 W/m 8,4 km/h (2 Bft) 93,62 %
26.08.2016 04:32 20,2 C 20,0 C 17,8 C 80 % 0 lf 1013,1 hPa 0,0 l/m 0 min 0 min 2 W/m 8,4 km/h (2 Bft) 93,75 %
26.08.2016 04:34 20,2 C 20,0 C 17,8 C 81 % 0 lf 1013,0 hPa 0,0 l/m 0 min 0 min 4 W/m 8,4 km/h (2 Bft) 95,74 %
26.08.2016 04:36 20,1 C 20,0 C 17,8 C 81 % 0 lf 1013,0 hPa 0,0 l/m 0 min 0 min 5 W/m 6,3 km/h (2 Bft) 91,84 %
26.08.2016 04:38 20,1 C 19,4 C 17,8 C 81 % 0 lf 1013,1 hPa 0,0 l/m 0 min 0 min 4 W/m 6,3 km/h (2 Bft) 89,36 %
26.08.2016 04:40 20,1 C 19,4 C 17,8 C 81 % 0 lf 1013,0 hPa 0,0 l/m 0 min 0 min 0 W/m 8,4 km/h (2 Bft) 91,49 %
26.08.2016 04:42 20,1 C 19,4 C 17,8 C 81 % 0 lf 1013,0 hPa 0,0 l/m 0 min 0 min 0 W/m 6,3 km/h (2 Bft) 93,62 %
26.08.2016 04:44 20,0 C 19,4 C 17,2 C 81 % 0 lf 1013,1 hPa 0,0 l/m 0 min 0 min 0 W/m 6,3 km/h (2 Bft) 89,36 %
26.08.2016 04:46 20,0 C 19,4 C 17,2 C 81 % 0 lf 1013,1 hPa 0,0 l/m 0 min 0 min 0 W/m 4,2 km/h (1 Bft) 93,62 %
26.08.2016 04:48 20,0 C 19,4 C 17,2 C 81 % 0 lf 1013,1 hPa 0,0 l/m 0 min 0 min 0 W/m 6,3 km/h (2 Bft) 93,48 %
26.08.2016 04:50 19,9 C 19,4 C 17,2 C 81 % 0 lf 1013,2 hPa 0,0 l/m 0 min 0 min 0 W/m 6,3 km/h (2 Bft) 91,49 %
26.08.2016 04:52 19,9 C 19,4 C 17,2 C 81 % 0 lf 1013,1 hPa 0,0 l/m 0 min 0 min 0 W/m 6,3 km/h (2 Bft) 91,49 %
26.08.2016 04:54 19,9 C 19,4 C 17,2 C 82 % 0 lf 1013,1 hPa 0,0 l/m 0 min 0 min 0 W/m 6,3 km/h (2 Bft) 89,36 %
26.08.2016 04:56 19,9 C 19,4 C 17,2 C 82 % 0 lf 1013,1 hPa 0,0 l/m 0 min 0 min 0 W/m 6,3 km/h (2 Bft) 93,62 %
26.08.2016 04:58 19,9 C 19,4 C 17,2 C 82 % 0 lf 1013,2 hPa 0,0 l/m 0 min 0 min 0 W/m 8,4 km/h (2 Bft) 93,62 %
26.08.2016 05:00 19,9 C 19,4 C 17,2 C 82 % 0 lf 1013,1 hPa 0,0 l/m 0 min 0 min 0 W/m 6,3 km/h (2 Bft) 91,30 %
26.08.2016 05:02 19,8 C 19,4 C 17,2 C 82 % 0 lf 1013,1 hPa 0,0 l/m 0 min 0 min 0 W/m 6,3 km/h (2 Bft) 92,45 %
26.08.2016 05:04 19,8 C 19,4 C 17,2 C 82 % 0 lf 1013,2 hPa 0,0 l/m 0 min 0 min 0 W/m 6,3 km/h (2 Bft) 91,49 %
26.08.2016 05:06 19,8 C 19,4 C 17,2 C 82 % 0 lf 1013,1 hPa 0,0 l/m 0 min 0 min 0 W/m 8,4 km/h (2 Bft) 97,37 %
26.08.2016 05:08 19,8 C 19,4 C 17,2 C 82 % 0 lf 1013,1 hPa 0,0 l/m 0 min 0 min 0 W/m 8,4 km/h (2 Bft) 95,74 %
26.08.2016 05:10 19,8 C 19,4 C 17,2 C 82 % 0 lf 1013,0 hPa 0,0 l/m 0 min 0 min 0 W/m 8,4 km/h (2 Bft) 95,74 %
26.08.2016 05:12 19,7 C 19,4 C 17,2 C 82 % 0 lf 1013,0 hPa 0,0 l/m 0 min 0 min 0 W/m 8,4 km/h (2 Bft) 97,83 %
26.08.2016 05:14 19,7 C 19,4 C 17,2 C 82 % 0 lf 1013,1 hPa 0,0 l/m 0 min 0 min 0 W/m 8,4 km/h (2 Bft) 97,87 %
26.08.2016 05:16 19,7 C 19,4 C 17,2 C 82 % 0 lf 1013,1 hPa 0,0 l/m 0 min 0 min 0 W/m 8,4 km/h (2 Bft) 100,00 %
26.08.2016 05:18 19,7 C 19,4 C 17,2 C 82 % 0 lf 1013,0 hPa 0,0 l/m 0 min 0 min 0 W/m 6,3 km/h (2 Bft) 97,87 %
26.08.2016 05:20 19,7 C 19,4 C 17,2 C 82 % 0 lf 1013,1 hPa 0,0 l/m 0 min 0 min 0 W/m 6,3 km/h (2 Bft) 95,74 %
26.08.2016 05:22 19,7 C 19,4 C 17,2 C 83 % 0 lf 1013,1 hPa 0,0 l/m 0 min 0 min 0 W/m 6,3 km/h (2 Bft) 97,87 %
26.08.2016 05:24 19,7 C 19,4 C 17,2 C 83 % 0 lf 1013,1 hPa 0,0 l/m 0 min 0 min 0 W/m 6,3 km/h (2 Bft) 100,00 %
26.08.2016 05:26 19,7 C 19,4 C 17,2 C 83 % 0 lf 1013,1 hPa 0,0 l/m 0 min 0 min 0 W/m 6,3 km/h (2 Bft) 100,00 %
26.08.2016 05:28 19,6 C 19,4 C 17,2 C 83 % 0 lf 1013,1 hPa 0,0 l/m 0 min 0 min 0 W/m 6,3 km/h (2 Bft) 97,87 %
26.08.2016 05:30 19,6 C 19,4 C 17,2 C 83 % 0 lf 1013,1 hPa 0,0 l/m 0 min 0 min 0 W/m 8,4 km/h (2 Bft) 97,87 %
26.08.2016 05:32 19,6 C 18,9 C 17,2 C 83 % 0 lf 1013,1 hPa 0,0 l/m 0 min 0 min 0 W/m 8,4 km/h (2 Bft) 100,00 %
26.08.2016 05:34 19,6 C 18,9 C 17,2 C 83 % 0 lf 1013,1 hPa 0,0 l/m 0 min 0 min 0 W/m 6,3 km/h (2 Bft) 97,87 %
26.08.2016 05:36 19,6 C 18,9 C 16,7 C 83 % 0 lf 1013,1 hPa 0,0 l/m 0 min 0 min 0 W/m 6,3 km/h (2 Bft) 100,00 %
26.08.2016 05:38 19,6 C 18,9 C 16,7 C 83 % 0 lf 1013,1 hPa 0,0 l/m 0 min 0 min 0 W/m 6,3 km/h (2 Bft) 100,00 %
26.08.2016 05:40 19,5 C 18,9 C 16,7 C 83 % 0 lf 1013,1 hPa 0,0 l/m 0 min 0 min 0 W/m 6,3 km/h (2 Bft) 97,87 %
26.08.2016 05:42 19,5 C 18,9 C 16,7 C 83 % 0 lf 1013,1 hPa 0,0 l/m 0 min 0 min 0 W/m 6,3 km/h (2 Bft) 97,87 %
26.08.2016 05:44 19,5 C 18,9 C 16,7 C 83 % 0 lf 1013,1 hPa 0,0 l/m 0 min 0 min 0 W/m 4,2 km/h (1 Bft) 100,00 %
26.08.2016 05:46 19,4 C 18,9 C 16,7 C 83 % 0 lf 1013,2 hPa 0,0 l/m 0 min 0 min 0 W/m 6,3 km/h (2 Bft) 100,00 %
26.08.2016 05:48 19,4 C 18,9 C 16,7 C 83 % 0 lf 1013,2 hPa 0,0 l/m 0 min 0 min 0 W/m 4,2 km/h (1 Bft) 100,00 %
26.08.2016 05:50 19,4 C 18,9 C 16,7 C 83 % 0 lf 1013,2 hPa 0,0 l/m 0 min 0 min 0 W/m 6,3 km/h (2 Bft) 100,00 %
26.08.2016 05:52 19,4 C 18,9 C 16,7 C 83 % 0 lf 1013,2 hPa 0,0 l/m 0 min 0 min 0 W/m 4,2 km/h (1 Bft) 97,87 %
26.08.2016 05:54 19,4 C 18,9 C 16,7 C 83 % 0 lf 1013,2 hPa 0,0 l/m 0 min 0 min 0 W/m 6,3 km/h (2 Bft) 100,00 %
26.08.2016 05:56 19,4 C 18,9 C 16,7 C 84 % 0 lf 1013,2 hPa 0,0 l/m 0 min 0 min 0 W/m 6,3 km/h (2 Bft) 100,00 %
26.08.2016 05:58 19,4 C 18,9 C 16,7 C 84 % 0 lf 1013,3 hPa 0,0 l/m 0 min 0 min 0 W/m 6,3 km/h (2 Bft) 100,00 %
26.08.2016 06:00 19,3 C 18,9 C 16,7 C 84 % 0 lf 1013,3 hPa 0,0 l/m 0 min 0 min 0 W/m 4,2 km/h (1 Bft) 100,00 %
26.08.2016 06:02 19,3 C 18,9 C 16,7 C 84 % 0 lf 1013,4 hPa 0,0 l/m 0 min 0 min 4 W/m 4,2 km/h (1 Bft) 100,00 %
26.08.2016 06:06 19,3 C 18,3 C 16,1 C 84 % 1 lf 1013,4 hPa 0,0 l/m 0 min 0 min 5 W/m 2,1 km/h (1 Bft) 98,00 %
26.08.2016 06:08 19,3 C 18,3 C 16,1 C 84 % 1 lf 1013,4 hPa 0,0 l/m 0 min 0 min 5 W/m 2,1 km/h (1 Bft) 100,00 %
26.08.2016 06:10 19,3 C 18,3 C 16,1 C 84 % 1 lf 1013,4 hPa 0,0 l/m 0 min 0 min 5 W/m 4,2 km/h (1 Bft) 97,83 %
26.08.2016 06:12 19,2 C 18,3 C 16,1 C 84 % 1 lf 1013,5 hPa 0,0 l/m 0 min 0 min 5 W/m 4,2 km/h (1 Bft) 97,87 %
26.08.2016 06:14 19,2 C 18,3 C 16,1 C 84 % 1 lf 1013,5 hPa 0,0 l/m 0 min 0 min 5 W/m 4,2 km/h (1 Bft) 100,00 %
26.08.2016 06:16 19,2 C 18,3 C 16,1 C 84 % 1 lf 1013,5 hPa 0,0 l/m 0 min 0 min 5 W/m 6,3 km/h (2 Bft) 95,74 %
26.08.2016 06:18 19,2 C 18,3 C 16,1 C 84 % 1 lf 1013,5 hPa 0,0 l/m 0 min 0 min 0 W/m 6,3 km/h (2 Bft) 97,87 %
26.08.2016 06:20 19,2 C 18,3 C 16,1 C 84 % 1 lf 1013,5 hPa 0,0 l/m 0 min 0 min 0 W/m 6,3 km/h (2 Bft) 100,00 %
26.08.2016 06:22 19,1 C 18,3 C 16,1 C 84 % 1 lf 1013,5 hPa 0,0 l/m 0 min 0 min 0 W/m 6,3 km/h (2 Bft) 100,00 %
26.08.2016 06:24 19,1 C 18,3 C 16,1 C 84 % 1 lf 1013,5 hPa 0,0 l/m 0 min 0 min 9 W/m 6,3 km/h (2 Bft) 97,87 %
26.08.2016 06:26 19,1 C 18,3 C 16,1 C 84 % 1 lf 1013,6 hPa 0,0 l/m 0 min 0 min 10 W/m 2,1 km/h (1 Bft) 97,87 %
26.08.2016 06:28 19,1 C 18,3 C 16,1 C 84 % 1 lf 1013,6 hPa 0,0 l/m 0 min 0 min 11 W/m 6,3 km/h (2 Bft) 100,00 %
26.08.2016 06:30 19,0 C 18,3 C 16,1 C 84 % 1 lf 1013,6 hPa 0,0 l/m 0 min 0 min 12 W/m 4,2 km/h (1 Bft) 100,00 %
26.08.2016 06:32 19,0 C 18,3 C 16,1 C 85 % 1 lf 1013,5 hPa 0,0 l/m 0 min 0 min 13 W/m 4,2 km/h (1 Bft) 95,74 %
26.08.2016 06:34 19,0 C 18,9 C 16,1 C 85 % 1 lf 1013,5 hPa 0,0 l/m 0 min 0 min 14 W/m 6,3 km/h (2 Bft) 93,48 %
26.08.2016 06:36 18,9 C 18,9 C 16,1 C 85 % 1 lf 1013,5 hPa 0,0 l/m 0 min 0 min 13 W/m 6,3 km/h (2 Bft) 94,00 %
26.08.2016 06:38 18,9 C 18,3 C 16,1 C 85 % 1 lf 1013,5 hPa 0,0 l/m 0 min 0 min 12 W/m 4,2 km/h (1 Bft) 95,74 %
26.08.2016 06:40 18,9 C 18,9 C 16,1 C 85 % 1 lf 1013,5 hPa 0,0 l/m 0 min 0 min 13 W/m 8,4 km/h (2 Bft) 87,23 %
26.08.2016 06:42 18,9 C 18,3 C 16,1 C 85 % 1 lf 1013,5 hPa 0,0 l/m 0 min 0 min 14 W/m 6,3 km/h (2 Bft) 95,74 %
26.08.2016 06:44 18,9 C 18,9 C 16,1 C 86 % 1 lf 1013,6 hPa 0,0 l/m 0 min 0 min 16 W/m 8,4 km/h (2 Bft) 93,62 %
26.08.2016 06:46 18,9 C 18,9 C 16,7 C 86 % 1 lf 1013,6 hPa 0,0 l/m 0 min 0 min 16 W/m 4,2 km/h (1 Bft) 97,83 %
26.08.2016 06:48 18,9 C 18,9 C 16,7 C 86 % 1 lf 1013,6 hPa 0,0 l/m 0 min 0 min 18 W/m 6,3 km/h (2 Bft) 91,49 %
26.08.2016 06:50 18,8 C 18,9 C 16,7 C 86 % 1 lf 1013,6 hPa 0,0 l/m 2 min 0 min 19 W/m 4,2 km/h (1 Bft) 93,62 %
26.08.2016 06:52 18,8 C 18,9 C 16,7 C 86 % 1 lf 1013,6 hPa 0,0 l/m 2 min 0 min 20 W/m 6,3 km/h (2 Bft) 93,62 %
26.08.2016 06:54 18,8 C 18,9 C 16,7 C 86 % 1 lf 1013,6 hPa 0,0 l/m 2 min 0 min 21 W/m 4,2 km/h (1 Bft) 95,74 %
26.08.2016 06:56 18,8 C 18,9 C 16,7 C 86 % 1 lf 1013,6 hPa 0,0 l/m 2 min 0 min 24 W/m 6,3 km/h (2 Bft) 95,65 %
26.08.2016 06:58 18,8 C 18,9 C 16,7 C 86 % 1 lf 1013,6 hPa 0,0 l/m 2 min 0 min 25 W/m 4,2 km/h (1 Bft) 91,49 %
26.08.2016 07:00 18,8 C 18,9 C 16,7 C 86 % 1 lf 1013,6 hPa 0,0 l/m 2 min 0 min 27 W/m 6,3 km/h (2 Bft) 91,49 %
26.08.2016 07:02 18,8 C 18,9 C 16,7 C 86 % 1 lf 1013,6 hPa 0,0 l/m 2 min 0 min 26 W/m 6,3 km/h (2 Bft) 93,62 %
26.08.2016 07:04 18,8 C 18,9 C 16,7 C 86 % 1 lf 1013,7 hPa 0,0 l/m 2 min 0 min 28 W/m 6,3 km/h (2 Bft) 89,36 %
26.08.2016 07:06 18,8 C 18,9 C 16,7 C 86 % 1 lf 1013,7 hPa 0,0 l/m 2 min 0 min 33 W/m 6,3 km/h (2 Bft) 95,35 %
26.08.2016 07:08 18,8 C 18,9 C 16,7 C 87 % 1 lf 1013,7 hPa 0,0 l/m 2 min 0 min 39 W/m 8,4 km/h (2 Bft) 93,62 %
26.08.2016 07:10 18,8 C 18,9 C 16,7 C 87 % 0 lf 1013,7 hPa 0,0 l/m 2 min 0 min 42 W/m 8,4 km/h (2 Bft) 100,00 %
26.08.2016 07:12 18,8 C 18,9 C 17,2 C 87 % 0 lf 1013,8 hPa 0,0 l/m 2 min 0 min 45 W/m 6,3 km/h (2 Bft) 95,74 %
26.08.2016 07:14 18,8 C 18,9 C 17,2 C 87 % 0 lf 1013,9 hPa 0,0 l/m 2 min 0 min 48 W/m 6,3 km/h (2 Bft) 97,87 %
26.08.2016 07:16 18,8 C 18,9 C 16,7 C 87 % 0 lf 1013,9 hPa 0,0 l/m 2 min 0 min 52 W/m 4,2 km/h (1 Bft) 91,49 %
26.08.2016 07:18 18,8 C 18,9 C 17,2 C 87 % 0 lf 1013,9 hPa 0,0 l/m 2 min 0 min 56 W/m 6,3 km/h (2 Bft) 97,87 %
26.08.2016 07:20 18,8 C 18,9 C 17,2 C 87 % 0 lf 1013,9 hPa 0,0 l/m 2 min 0 min 61 W/m 6,3 km/h (2 Bft) 97,87 %
26.08.2016 07:22 18,8 C 19,4 C 17,2 C 87 % 0 lf 1013,9 hPa 0,0 l/m 2 min 0 min 66 W/m 6,3 km/h (2 Bft) 97,83 %
26.08.2016 07:24 18,8 C 19,4 C 17,2 C 87 % 0 lf 1013,9 hPa 0,0 l/m 2 min 0 min 70 W/m 6,3 km/h (2 Bft) 95,74 %
26.08.2016 07:26 18,8 C 19,4 C 17,2 C 87 % 0 lf 1013,9 hPa 0,0 l/m 2 min 0 min 76 W/m 8,4 km/h (2 Bft) 95,74 %
26.08.2016 07:28 18,8 C 19,4 C 17,2 C 87 % 0 lf 1014,0 hPa 0,0 l/m 2 min 0 min 83 W/m 4,2 km/h (1 Bft) 95,74 %
26.08.2016 07:30 18,8 C 19,4 C 17,2 C 87 % 0 lf 1014,0 hPa 0,0 l/m 2 min 0 min 88 W/m 6,3 km/h (2 Bft) 91,49 %
26.08.2016 07:32 18,8 C 19,4 C 17,2 C 87 % 0 lf 1014,0 hPa 0,0 l/m 2 min 0 min 94 W/m 4,2 km/h (1 Bft) 93,75 %
26.08.2016 07:34 18,9 C 19,4 C 17,2 C 87 % 0 lf 1014,0 hPa 0,0 l/m 2 min 0 min 100 W/m 4,2 km/h (1 Bft) 95,65 %
26.08.2016 07:36 18,9 C 19,4 C 17,8 C 87 % 0 lf 1014,1 hPa 0,0 l/m 2 min 0 min 106 W/m 6,3 km/h (2 Bft) 98,00 %
26.08.2016 07:38 18,9 C 19,4 C 17,8 C 87 % 0 lf 1014,1 hPa 0,0 l/m 2 min 0 min 112 W/m 6,3 km/h (2 Bft) 95,74 %
26.08.2016 07:40 18,9 C 20,0 C 17,8 C 87 % 0 lf 1014,0 hPa 0,0 l/m 2 min 0 min 120 W/m 8,4 km/h (2 Bft) 93,62 %
26.08.2016 07:42 18,9 C 20,0 C 17,8 C 87 % 0 lf 1014,0 hPa 0,0 l/m 2 min 0 min 119 W/m 8,4 km/h (2 Bft) 95,74 %
26.08.2016 07:44 19,0 C 20,0 C 17,8 C 87 % 0 lf 1014,0 hPa 0,0 l/m 2 min 0 min 127 W/m 8,4 km/h (2 Bft) 93,48 %
26.08.2016 07:46 19,0 C 20,0 C 17,8 C 87 % 0 lf 1014,0 hPa 0,0 l/m 2 min 0 min 140 W/m 6,3 km/h (2 Bft) 95,74 %
26.08.2016 07:48 19,1 C 20,0 C 18,3 C 87 % 0 lf 1014,0 hPa 0,0 l/m 2 min 0 min 146 W/m 8,4 km/h (2 Bft) 95,74 %
26.08.2016 07:50 19,1 C 20,0 C 18,3 C 87 % 0 lf 1014,0 hPa 0,0 l/m 2 min 0 min 153 W/m 8,4 km/h (2 Bft) 95,74 %
26.08.2016 07:52 19,1 C 20,0 C 18,3 C 87 % 0 lf 1013,9 hPa 0,0 l/m 2 min 0 min 160 W/m 6,3 km/h (2 Bft) 95,74 %
26.08.2016 07:54 19,2 C 20,6 C 18,3 C 87 % 0 lf 1013,9 hPa 0,0 l/m 2 min 0 min 167 W/m 8,4 km/h (2 Bft) 93,62 %
26.08.2016 07:56 19,2 C 20,6 C 18,3 C 87 % 0 lf 1013,9 hPa 0,0 l/m 2 min 0 min 170 W/m 10,5 km/h (2 Bft) 91,30 %
26.08.2016 07:58 19,3 C 20,6 C 18,3 C 87 % 0 lf 1013,9 hPa 0,0 l/m 2 min 0 min 146 W/m 10,5 km/h (2 Bft) 93,62 %
26.08.2016 08:00 19,3 C 20,6 C 18,9 C 86 % 0 lf 1014,0 hPa 0,0 l/m 2 min 0 min 171 W/m 12,6 km/h (3 Bft) 93,62 %
26.08.2016 08:02 19,4 C 20,6 C 18,9 C 86 % 0 lf 1014,0 hPa 0,0 l/m 2 min 0 min 141 W/m 8,4 km/h (2 Bft) 93,62 %
26.08.2016 08:04 19,5 C 20,6 C 18,9 C 86 % 0 lf 1014,0 hPa 0,0 l/m 2 min 0 min 192 W/m 12,6 km/h (3 Bft) 95,74 %
26.08.2016 08:06 19,6 C 20,6 C 18,9 C 86 % 0 lf 1014,0 hPa 0,0 l/m 2 min 0 min 200 W/m 12,6 km/h (3 Bft) 95,35 %
26.08.2016 08:08 19,6 C 20,6 C 18,9 C 85 % 0 lf 1014,0 hPa 0,0 l/m 2 min 0 min 181 W/m 8,4 km/h (2 Bft) 95,65 %
26.08.2016 08:10 19,7 C 21,1 C 18,9 C 85 % 0 lf 1014,1 hPa 0,0 l/m 2 min 0 min 170 W/m 10,5 km/h (2 Bft) 95,74 %
26.08.2016 08:12 19,8 C 21,1 C 18,9 C 85 % 0 lf 1014,0 hPa 0,0 l/m 2 min 0 min 178 W/m 10,5 km/h (2 Bft) 95,74 %
26.08.2016 08:14 19,8 C 21,1 C 19,4 C 85 % 0 lf 1014,0 hPa 0,0 l/m 2 min 0 min 210 W/m 12,6 km/h (3 Bft) 93,62 %
26.08.2016 08:16 19,9 C 21,1 C 19,4 C 85 % 0 lf 1014,0 hPa 0,0 l/m 2 min 0 min 208 W/m 6,3 km/h (2 Bft) 95,74 %
26.08.2016 08:18 19,9 C 21,1 C 19,4 C 85 % 0 lf 1014,1 hPa 0,0 l/m 2 min 0 min 239 W/m 8,4 km/h (2 Bft) 93,62 %
26.08.2016 08:20 20,1 C 21,7 C 19,4 C 85 % 0 lf 1014,0 hPa 0,0 l/m 2 min 0 min 247 W/m 6,3 km/h (2 Bft) 97,83 %
26.08.2016 08:22 20,1 C 21,7 C 19,4 C 85 % 0 lf 1014,2 hPa 0,0 l/m 2 min 0 min 251 W/m 8,4 km/h (2 Bft) 95,74 %
26.08.2016 08:24 20,2 C 21,7 C 19,4 C 85 % 0 lf 1014,2 hPa 0,0 l/m 2 min 0 min 248 W/m 8,4 km/h (2 Bft) 96,08 %
26.08.2016 08:26 20,2 C 21,7 C 19,4 C 84 % 0 lf 1014,2 hPa 0,0 l/m 2 min 0 min 242 W/m 8,4 km/h (2 Bft) 97,87 %
26.08.2016 08:28 20,3 C 21,7 C 19,4 C 84 % 0 lf 1014,2 hPa 0,0 l/m 2 min 0 min 263 W/m 6,3 km/h (2 Bft) 97,87 %
26.08.2016 08:30 20,4 C 21,7 C 19,4 C 84 % 0 lf 1014,1 hPa 0,0 l/m 2 min 0 min 277 W/m 8,4 km/h (2 Bft) 95,65 %
26.08.2016 08:32 20,4 C 22,2 C 20,0 C 84 % 0 lf 1014,1 hPa 0,0 l/m 2 min 0 min 211 W/m 10,5 km/h (2 Bft) 93,62 %
26.08.2016 08:34 20,6 C 22,2 C 20,0 C 84 % 0 lf 1014,1 hPa 0,0 l/m 2 min 0 min 205 W/m 10,5 km/h (2 Bft) 95,74 %
26.08.2016 08:36 20,6 C 22,2 C 20,0 C 84 % 0 lf 1014,1 hPa 0,0 l/m 2 min 0 min 270 W/m 10,5 km/h (2 Bft) 93,62 %
26.08.2016 08:38 20,7 C 22,2 C 20,0 C 84 % 0 lf 1014,1 hPa 0,0 l/m 2 min 0 min 277 W/m 10,5 km/h (2 Bft) 98,11 %
26.08.2016 08:40 20,8 C 22,2 C 20,0 C 83 % 0 lf 1014,1 hPa 0,0 l/m 2 min 0 min 292 W/m 10,5 km/h (2 Bft) 97,83 %
26.08.2016 08:42 20,9 C 22,8 C 20,6 C 83 % 0 lf 1014,1 hPa 0,0 l/m 2 min 0 min 298 W/m 12,6 km/h (3 Bft) 95,74 %
26.08.2016 08:44 21,0 C 22,8 C 20,6 C 82 % 0 lf 1014,1 hPa 0,0 l/m 2 min 0 min 279 W/m 14,6 km/h (3 Bft) 97,87 %
26.08.2016 08:46 21,1 C 22,8 C 20,6 C 82 % 0 lf 1014,1 hPa 0,0 l/m 2 min 0 min 290 W/m 12,6 km/h (3 Bft) 97,87 %
26.08.2016 08:48 21,2 C 22,8 C 20,6 C 82 % 0 lf 1014,2 hPa 0,0 l/m 2 min 0 min 298 W/m 12,6 km/h (3 Bft) 97,87 %
26.08.2016 08:50 21,3 C 22,8 C 20,6 C 81 % 0 lf 1014,2 hPa 0,0 l/m 2 min 0 min 289 W/m 10,5 km/h (2 Bft) 97,87 %
26.08.2016 08:52 21,4 C 23,9 C 21,1 C 81 % 0 lf 1014,2 hPa 0,0 l/m 2 min 0 min 293 W/m 10,5 km/h (2 Bft) 97,83 %
26.08.2016 08:54 21,5 C 24,4 C 21,1 C 81 % 0 lf 1014,2 hPa 0,0 l/m 2 min 0 min 258 W/m 12,6 km/h (3 Bft) 97,87 %
26.08.2016 08:56 21,6 C 25,6 C 21,1 C 81 % 0 lf 1014,2 hPa 0,0 l/m 2 min 0 min 340 W/m 12,6 km/h (3 Bft) 97,87 %
26.08.2016 08:58 21,7 C 26,7 C 21,1 C 81 % 0 lf 1014,3 hPa 0,0 l/m 2 min 0 min 343 W/m 10,5 km/h (2 Bft) 97,87 %
26.08.2016 09:00 21,8 C 27,2 C 21,1 C 81 % 0 lf 1014,2 hPa 0,0 l/m 2 min 0 min 355 W/m 8,4 km/h (2 Bft) 97,87 %
26.08.2016 09:02 21,9 C 28,3 C 21,1 C 81 % 0 lf 1014,2 hPa 0,0 l/m 2 min 0 min 364 W/m 10,5 km/h (2 Bft) 97,87 %
26.08.2016 09:04 22,1 C 27,8 C 21,1 C 80 % 0 lf 1014,3 hPa 0,0 l/m 2 min 0 min 357 W/m 12,6 km/h (3 Bft) 90,24 %
26.08.2016 09:06 22,2 C 27,8 C 21,1 C 80 % 0 lf 1014,3 hPa 0,0 l/m 2 min 0 min 367 W/m 10,5 km/h (2 Bft) 97,73 %
26.08.2016 09:08 22,3 C 27,2 C 21,1 C 79 % 0 lf 1014,2 hPa 0,0 l/m 2 min 0 min 252 W/m 12,6 km/h (3 Bft) 100,00 %
26.08.2016 09:10 22,5 C 28,9 C 21,7 C 79 % 0 lf 1014,2 hPa 0,0 l/m 2 min 0 min 270 W/m 12,6 km/h (3 Bft) 100,00 %
26.08.2016 09:12 22,6 C 28,9 C 21,7 C 79 % 0 lf 1014,2 hPa 0,0 l/m 2 min 0 min 377 W/m 12,6 km/h (3 Bft) 97,87 %
26.08.2016 09:14 22,7 C 30,0 C 21,7 C 79 % 0 lf 1014,2 hPa 0,0 l/m 2 min 0 min 360 W/m 10,5 km/h (2 Bft) 97,87 %
26.08.2016 09:16 22,9 C 29,4 C 21,7 C 79 % 0 lf 1014,4 hPa 0,0 l/m 2 min 0 min 264 W/m 10,5 km/h (2 Bft) 93,62 %
26.08.2016 09:18 23,0 C 27,2 C 21,7 C 77 % 0 lf 1014,3 hPa 0,0 l/m 2 min 0 min 240 W/m 12,6 km/h (3 Bft) 97,83 %
26.08.2016 09:20 23,2 C 27,2 C 22,2 C 77 % 0 lf 1014,3 hPa 0,0 l/m 2 min 0 min 362 W/m 10,5 km/h (2 Bft) 95,74 %
26.08.2016 09:22 23,3 C 27,2 C 22,2 C 76 % 0 lf 1014,3 hPa 0,0 l/m 2 min 0 min 392 W/m 10,5 km/h (2 Bft) 95,74 %
26.08.2016 09:24 23,4 C 28,3 C 22,2 C 76 % 0 lf 1014,3 hPa 0,0 l/m 2 min 0 min 342 W/m 12,6 km/h (3 Bft) 95,74 %
26.08.2016 09:26 23,6 C 27,8 C 22,2 C 76 % 0 lf 1014,3 hPa 0,0 l/m 2 min 0 min 252 W/m 12,6 km/h (3 Bft) 97,87 %
26.08.2016 09:28 23,7 C 28,3 C 22,2 C 75 % 0 lf 1014,3 hPa 0,0 l/m 2 min 0 min 390 W/m 8,4 km/h (2 Bft) 97,87 %
26.08.2016 09:30 23,8 C 29,4 C 22,8 C 75 % 0 lf 1014,3 hPa 0,0 l/m 2 min 0 min 438 W/m 12,6 km/h (3 Bft) 97,83 %
26.08.2016 09:32 23,9 C 30,6 C 22,8 C 75 % 0 lf 1014,3 hPa 0,0 l/m 2 min 0 min 441 W/m 10,5 km/h (2 Bft) 97,92 %
26.08.2016 09:34 24,1 C 30,6 C 22,8 C 75 % 0 lf 1014,3 hPa 0,0 l/m 2 min 0 min 446 W/m 8,4 km/h (2 Bft) 95,74 %
26.08.2016 09:36 24,2 C 29,4 C 23,3 C 74 % 0 lf 1014,4 hPa 0,0 l/m 2 min 0 min 439 W/m 12,6 km/h (3 Bft) 97,96 %
26.08.2016 09:38 24,3 C 29,4 C 23,3 C 74 % 0 lf 1014,4 hPa 0,0 l/m 2 min 0 min 438 W/m 10,5 km/h (2 Bft) 95,74 %
26.08.2016 09:40 24,5 C 29,4 C 23,3 C 73 % 0 lf 1014,3 hPa 0,0 l/m 2 min 0 min 416 W/m 10,5 km/h (2 Bft) 97,83 %
26.08.2016 09:42 24,6 C 29,4 C 23,3 C 73 % 0 lf 1014,4 hPa 0,0 l/m 2 min 0 min 456 W/m 10,5 km/h (2 Bft) 97,87 %
26.08.2016 09:44 24,8 C 30,0 C 23,3 C 72 % 0 lf 1014,4 hPa 0,0 l/m 2 min 0 min 458 W/m 10,5 km/h (2 Bft) 97,87 %
26.08.2016 09:46 24,9 C 30,0 C 24,4 C 72 % 0 lf 1014,5 hPa 0,0 l/m 2 min 0 min 511 W/m 12,6 km/h (3 Bft) 97,87 %
26.08.2016 09:48 25,1 C 31,1 C 25,6 C 72 % 0 lf 1014,5 hPa 0,0 l/m 2 min 0 min 524 W/m 8,4 km/h (2 Bft) 95,74 %
26.08.2016 09:50 25,1 C 33,3 C 25,6 C 72 % 0 lf 1014,4 hPa 0,0 l/m 2 min 0 min 482 W/m 10,5 km/h (2 Bft) 93,62 %
26.08.2016 09:52 25,2 C 33,3 C 25,6 C 72 % 0 lf 1014,4 hPa 0,0 l/m 2 min 0 min 489 W/m 6,3 km/h (2 Bft) 95,65 %
26.08.2016 09:54 25,4 C 33,3 C 25,6 C 72 % 0 lf 1014,5 hPa 0,0 l/m 2 min 0 min 491 W/m 6,3 km/h (2 Bft) 97,87 %
26.08.2016 09:56 25,5 C 33,3 C 25,6 C 72 % 0 lf 1014,4 hPa 0,0 l/m 2 min 0 min 502 W/m 10,5 km/h (2 Bft) 97,87 %
26.08.2016 09:58 25,7 C 32,2 C 25,6 C 71 % 0 lf 1014,3 hPa 0,0 l/m 2 min 0 min 520 W/m 8,4 km/h (2 Bft) 97,87 %
26.08.2016 10:00 25,8 C 32,8 C 27,8 C 71 % 0 lf 1014,5 hPa 0,0 l/m 2 min 0 min 509 W/m 6,3 km/h (2 Bft) 97,87 %
26.08.2016 10:02 26,0 C 31,7 C 28,9 C 70 % 0 lf 1014,5 hPa 0,0 l/m 2 min 0 min 544 W/m 8,4 km/h (2 Bft) 95,74 %
26.08.2016 10:04 26,1 C 31,7 C 30,0 C 69 % 0 lf 1014,5 hPa 0,0 l/m 2 min 0 min 541 W/m 10,5 km/h (2 Bft) 97,83 %
26.08.2016 10:06 26,3 C 32,2 C 30,6 C 69 % 0 lf 1014,4 hPa 0,0 l/m 2 min 0 min 540 W/m 8,4 km/h (2 Bft) 100,00 %
26.08.2016 10:08 26,4 C 32,8 C 31,1 C 69 % 0 lf 1014,5 hPa 0,0 l/m 2 min 0 min 518 W/m 8,4 km/h (2 Bft) 100,00 %
26.08.2016 10:10 26,6 C 32,2 C 31,7 C 68 % 0 lf 1014,5 hPa 0,0 l/m 2 min 0 min 536 W/m 8,4 km/h (2 Bft) 95,74 %
26.08.2016 10:12 26,7 C 31,1 C 31,7 C 68 % 0 lf 1014,5 hPa 0,0 l/m 2 min 0 min 571 W/m 8,4 km/h (2 Bft) 100,00 %
26.08.2016 10:14 26,8 C 31,7 C 31,1 C 67 % 0 lf 1014,5 hPa 0,0 l/m 2 min 0 min 615 W/m 8,4 km/h (2 Bft) 100,00 %
26.08.2016 10:16 26,9 C 32,8 C 31,7 C 67 % 0 lf 1014,5 hPa 0,0 l/m 2 min 0 min 588 W/m 8,4 km/h (2 Bft) 100,00 %
26.08.2016 10:18 27,0 C 33,9 C 31,7 C 67 % 0 lf 1014,5 hPa 0,0 l/m 2 min 0 min 585 W/m 6,3 km/h (2 Bft) 100,00 %
26.08.2016 10:20 27,1 C 33,9 C 32,2 C 67 % 0 lf 1014,5 hPa 0,0 l/m 2 min 0 min 639 W/m 6,3 km/h (2 Bft) 97,87 %
26.08.2016 10:22 27,2 C 35,0 C 32,2 C 67 % 0 lf 1014,5 hPa 0,0 l/m 2 min 0 min 618 W/m 6,3 km/h (2 Bft) 100,00 %
26.08.2016 10:24 27,3 C 36,7 C 32,2 C 68 % 0 lf 1014,5 hPa 0,0 l/m 2 min 0 min 591 W/m 8,4 km/h (2 Bft) 95,74 %
26.08.2016 10:26 27,4 C 34,4 C 32,8 C 66 % 0 lf 1014,5 hPa 0,0 l/m 2 min 0 min 641 W/m 8,4 km/h (2 Bft) 97,87 %
26.08.2016 10:28 27,6 C 33,3 C 33,3 C 66 % 0 lf 1014,6 hPa 0,0 l/m 2 min 0 min 706 W/m 8,4 km/h (2 Bft) 100,00 %
26.08.2016 10:30 27,7 C 32,2 C 32,8 C 65 % 0 lf 1014,6 hPa 0,0 l/m 2 min 0 min 616 W/m 8,4 km/h (2 Bft) 93,62 %
26.08.2016 10:32 27,8 C 32,2 C 32,8 C 65 % 0 lf 1014,6 hPa 0,0 l/m 2 min 0 min 607 W/m 10,5 km/h (2 Bft) 100,00 %
26.08.2016 10:34 27,8 C 32,8 C 32,8 C 64 % 0 lf 1014,6 hPa 0,0 l/m 2 min 0 min 604 W/m 6,3 km/h (2 Bft) 95,74 %
26.08.2016 10:36 27,9 C 33,3 C 33,3 C 65 % 0 lf 1014,6 hPa 0,0 l/m 2 min 0 min 610 W/m 8,4 km/h (2 Bft) 94,74 %
26.08.2016 10:38 28,1 C 34,4 C 33,9 C 64 % 0 lf 1014,6 hPa 0,0 l/m 2 min 0 min 616 W/m 10,5 km/h (2 Bft) 95,74 %
26.08.2016 10:40 28,2 C 35,6 C 33,3 C 64 % 0 lf 1014,6 hPa 0,0 l/m 2 min 0 min 659 W/m 8,4 km/h (2 Bft) 95,65 %
26.08.2016 10:42 28,2 C 35,6 C 33,9 C 64 % 0 lf 1014,7 hPa 0,0 l/m 2 min 0 min 702 W/m 6,3 km/h (2 Bft) 93,62 %
26.08.2016 10:44 28,3 C 35,6 C 34,4 C 64 % 0 lf 1014,7 hPa 0,0 l/m 2 min 0 min 688 W/m 6,3 km/h (2 Bft) 95,74 %
26.08.2016 10:46 28,4 C 34,4 C 34,4 C 63 % 0 lf 1014,7 hPa 0,0 l/m 2 min 0 min 648 W/m 8,4 km/h (2 Bft) 93,62 %
26.08.2016 10:48 28,6 C 36,1 C 33,3 C 64 % 0 lf 1014,6 hPa 0,0 l/m 2 min 0 min 714 W/m 8,4 km/h (2 Bft) 95,74 %
26.08.2016 10:50 28,6 C 36,1 C 33,9 C 63 % 0 lf 1014,6 hPa 0,0 l/m 2 min 0 min 690 W/m 10,5 km/h (2 Bft) 97,87 %
26.08.2016 10:52 28,7 C 33,9 C 33,9 C 62 % 0 lf 1014,6 hPa 0,0 l/m 2 min 0 min 670 W/m 14,6 km/h (3 Bft) 95,65 %
26.08.2016 10:54 28,8 C 35,0 C 33,9 C 63 % 0 lf 1014,6 hPa 0,0 l/m 2 min 0 min 738 W/m 12,6 km/h (3 Bft) 95,74 %
26.08.2016 10:56 28,9 C 34,4 C 33,3 C 63 % 0 lf 1014,7 hPa 0,0 l/m 2 min 0 min 763 W/m 6,3 km/h (2 Bft) 95,74 %
26.08.2016 10:58 29,0 C 36,7 C 32,2 C 63 % 0 lf 1014,6 hPa 0,0 l/m 2 min 0 min 747 W/m 8,4 km/h (2 Bft) 93,62 %
26.08.2016 11:00 29,1 C 37,8 C 31,1 C 63 % 0 lf 1014,7 hPa 0,0 l/m 2 min 0 min 598 W/m 6,3 km/h (2 Bft) 95,74 %
26.08.2016 11:02 29,2 C 38,9 C 30,6 C 63 % 0 lf 1014,7 hPa 0,0 l/m 2 min 0 min 639 W/m 6,3 km/h (2 Bft) 93,75 %
26.08.2016 11:04 29,3 C 40,0 C 30,6 C 62 % 0 lf 1014,9 hPa 0,0 l/m 2 min 0 min 641 W/m 6,3 km/h (2 Bft) 91,30 %
26.08.2016 11:06 29,4 C 40,6 C 31,1 C 62 % 0 lf 1014,9 hPa 0,0 l/m 2 min 0 min 645 W/m 4,2 km/h (1 Bft) 89,80 %
26.08.2016 11:08 29,5 C 40,0 C 32,2 C 62 % 0 lf 1014,8 hPa 0,0 l/m 2 min 0 min 668 W/m 6,3 km/h (2 Bft) 91,49 %
26.08.2016 11:10 29,6 C 40,0 C 33,3 C 62 % 0 lf 1014,9 hPa 0,0 l/m 2 min 0 min 680 W/m 8,4 km/h (2 Bft) 93,62 %
26.08.2016 11:12 29,7 C 38,3 C 34,4 C 61 % 0 lf 1014,8 hPa 0,0 l/m 2 min 0 min 662 W/m 6,3 km/h (2 Bft) 93,62 %
26.08.2016 11:14 29,8 C 37,8 C 34,4 C 61 % 0 lf 1014,8 hPa 0,0 l/m 2 min 0 min 631 W/m 6,3 km/h (2 Bft) 95,65 %
26.08.2016 11:16 29,9 C 38,9 C 35,0 C 62 % 0 lf 1014,9 hPa 0,0 l/m 2 min 0 min 694 W/m 10,5 km/h (2 Bft) 87,23 %
26.08.2016 11:18 30,0 C 39,4 C 34,4 C 62 % 0 lf 1014,9 hPa 0,0 l/m 2 min 0 min 737 W/m 14,6 km/h (3 Bft) 91,49 %
26.08.2016 11:20 30,1 C 39,4 C 35,0 C 61 % 0 lf 1014,9 hPa 0,0 l/m 2 min 0 min 720 W/m 8,4 km/h (2 Bft) 97,87 %
26.08.2016 11:22 30,2 C 38,9 C 35,0 C 61 % 0 lf 1014,8 hPa 0,0 l/m 2 min 0 min 730 W/m 8,4 km/h (2 Bft) 95,74 %
26.08.2016 11:24 30,3 C 37,8 C 35,0 C 61 % 0 lf 1014,8 hPa 0,0 l/m 2 min 0 min 707 W/m 14,6 km/h (3 Bft) 91,49 %
26.08.2016 11:26 30,3 C 38,9 C 35,6 C 61 % 0 lf 1014,8 hPa 0,0 l/m 2 min 0 min 691 W/m 8,4 km/h (2 Bft) 95,65 %
26.08.2016 11:28 30,4 C 39,4 C 35,6 C 61 % 0 lf 1014,8 hPa 0,0 l/m 2 min 0 min 698 W/m 10,5 km/h (2 Bft) 93,62 %
26.08.2016 11:30 30,4 C 39,4 C 35,6 C 60 % 0 lf 1014,8 hPa 0,0 l/m 2 min 0 min 720 W/m 12,6 km/h (3 Bft) 97,87 %
26.08.2016 11:32 30,5 C 39,4 C 35,6 C 61 % 0 lf 1014,9 hPa 0,0 l/m 2 min 0 min 731 W/m 8,4 km/h (2 Bft) 95,74 %
26.08.2016 11:34 30,5 C 38,3 C 35,6 C 60 % 0 lf 1014,9 hPa 0,0 l/m 2 min 0 min 702 W/m 10,5 km/h (2 Bft) 97,87 %
26.08.2016 11:36 30,6 C 40,0 C 36,1 C 60 % 0 lf 1014,9 hPa 0,0 l/m 2 min 0 min 683 W/m 8,4 km/h (2 Bft) 97,87 %
26.08.2016 11:38 30,6 C 38,9 C 36,7 C 60 % 0 lf 1014,9 hPa 0,0 l/m 2 min 0 min 674 W/m 6,3 km/h (2 Bft) 97,83 %
26.08.2016 11:40 30,7 C 40,6 C 36,7 C 60 % 0 lf 1014,9 hPa 0,0 l/m 2 min 0 min 650 W/m 8,4 km/h (2 Bft) 97,87 %
26.08.2016 11:42 30,7 C 40,0 C 36,7 C 60 % 0 lf 1014,9 hPa 0,0 l/m 2 min 0 min 685 W/m 8,4 km/h (2 Bft) 97,87 %
26.08.2016 11:44 30,8 C 40,6 C 36,7 C 61 % 0 lf 1014,9 hPa 0,0 l/m 2 min 0 min 689 W/m 8,4 km/h (2 Bft) 95,74 %
26.08.2016 11:46 30,9 C 40,6 C 36,7 C 60 % 0 lf 1014,9 hPa 0,0 l/m 2 min 0 min 661 W/m 8,4 km/h (2 Bft) 93,62 %
26.08.2016 11:48 31,0 C 41,1 C 36,7 C 61 % 0 lf 1015,0 hPa 0,0 l/m 2 min 0 min 668 W/m 10,5 km/h (2 Bft) 95,74 %
26.08.2016 11:50 31,1 C 42,2 C 36,7 C 60 % 0 lf 1015,0 hPa 0,0 l/m 2 min 0 min 695 W/m 8,4 km/h (2 Bft) 97,83 %
26.08.2016 11:52 31,2 C 42,2 C 37,2 C 60 % 0 lf 1014,9 hPa 0,0 l/m 2 min 0 min 660 W/m 8,4 km/h (2 Bft) 90,57 %
26.08.2016 11:54 31,2 C 40,6 C 37,8 C 60 % 0 lf 1014,9 hPa 0,0 l/m 2 min 0 min 682 W/m 8,4 km/h (2 Bft) 95,74 %
26.08.2016 11:56 31,3 C 41,1 C 37,2 C 60 % 0 lf 1014,9 hPa 0,0 l/m 2 min 0 min 700 W/m 8,4 km/h (2 Bft) 91,49 %
26.08.2016 11:58 31,3 C 40,6 C 35,6 C 59 % 0 lf 1014,9 hPa 0,0 l/m 2 min 0 min 701 W/m 10,5 km/h (2 Bft) 93,62 %
26.08.2016 12:00 31,4 C 41,1 C 36,1 C 59 % 0 lf 1014,9 hPa 0,0 l/m 2 min 0 min 705 W/m 12,6 km/h (3 Bft) 93,48 %
26.08.2016 12:02 31,4 C 41,7 C 36,1 C 59 % 0 lf 1014,8 hPa 0,0 l/m 2 min 0 min 709 W/m 10,5 km/h (2 Bft) 95,74 %
26.08.2016 12:06 31,4 C 43,3 C 36,1 C 60 % 0 lf 1014,9 hPa 0,0 l/m 2 min 0 min 707 W/m 10,5 km/h (2 Bft) 94,74 %
26.08.2016 12:08 31,5 C 42,8 C 37,2 C 60 % 0 lf 1015,0 hPa 0,0 l/m 2 min 0 min 653 W/m 10,5 km/h (2 Bft) 97,14 %
26.08.2016 12:10 31,6 C 42,8 C 37,2 C 60 % 0 lf 1014,9 hPa 0,0 l/m 2 min 0 min 650 W/m 14,6 km/h (3 Bft) 97,87 %
26.08.2016 12:12 31,6 C 41,7 C 36,7 C 60 % 0 lf 1014,9 hPa 0,0 l/m 2 min 0 min 362 W/m 8,4 km/h (2 Bft) 94,83 %
26.08.2016 12:14 31,6 C 41,1 C 36,7 C 59 % 0 lf 1014,9 hPa 0,0 l/m 2 min 0 min 721 W/m 6,3 km/h (2 Bft) 94,44 %
26.08.2016 12:16 31,6 C 40,6 C 37,2 C 60 % 0 lf 1014,9 hPa 0,0 l/m 2 min 0 min 715 W/m 4,2 km/h (1 Bft) 95,65 %
26.08.2016 12:18 31,7 C 41,7 C 37,2 C 60 % 0 lf 1014,9 hPa 0,0 l/m 2 min 0 min 706 W/m 10,5 km/h (2 Bft) 95,74 %
26.08.2016 12:20 31,8 C 41,1 C 37,2 C 59 % 0 lf 1014,9 hPa 0,0 l/m 2 min 0 min 696 W/m 10,5 km/h (2 Bft) 95,74 %
26.08.2016 12:22 31,8 C 40,6 C 36,7 C 58 % 0 lf 1015,0 hPa 0,0 l/m 2 min 0 min 597 W/m 8,4 km/h (2 Bft) 95,74 %
26.08.2016 12:24 31,9 C 39,4 C 36,1 C 58 % 0 lf 1015,0 hPa 0,0 l/m 2 min 0 min 445 W/m 12,6 km/h (3 Bft) 95,74 %
26.08.2016 12:26 31,9 C 40,6 C 35,0 C 59 % 0 lf 1015,0 hPa 0,0 l/m 2 min 0 min 555 W/m 12,6 km/h (3 Bft) 93,48 %
26.08.2016 12:28 32,0 C 40,0 C 35,0 C 58 % 0 lf 1015,0 hPa 0,0 l/m 2 min 0 min 555 W/m 14,6 km/h (3 Bft) 91,49 %
26.08.2016 12:30 32,1 C 41,1 C 33,9 C 59 % 0 lf 1015,0 hPa 0,0 l/m 2 min 0 min 555 W/m 14,6 km/h (3 Bft) 95,74 %
26.08.2016 12:32 32,1 C 41,7 C 33,3 C 57 % 0 lf 1015,0 hPa 0,0 l/m 2 min 0 min 597 W/m 6,3 km/h (2 Bft) 95,74 %
26.08.2016 12:34 32,1 C 41,7 C 32,2 C 58 % 0 lf 1015,0 hPa 0,0 l/m 2 min 0 min 695 W/m 12,6 km/h (3 Bft) 95,74 %
26.08.2016 12:36 32,0 C 41,1 C 32,2 C 58 % 0 lf 1015,0 hPa 0,0 l/m 2 min 0 min 729 W/m 6,3 km/h (2 Bft) 95,74 %
26.08.2016 12:38 32,0 C 40,0 C 32,8 C 58 % 0 lf 1015,0 hPa 0,0 l/m 2 min 0 min 729 W/m 8,4 km/h (2 Bft) 97,83 %
26.08.2016 12:40 32,0 C 40,6 C 32,8 C 58 % 0 lf 1015,0 hPa 0,0 l/m 2 min 0 min 716 W/m 10,5 km/h (2 Bft) 97,87 %
26.08.2016 12:42 32,1 C 40,6 C 32,8 C 58 % 0 lf 1015,0 hPa 0,0 l/m 2 min 0 min 734 W/m 6,3 km/h (2 Bft) 91,49 %
26.08.2016 12:44 32,1 C 39,4 C 32,8 C 58 % 0 lf 1015,0 hPa 0,0 l/m 2 min 0 min 740 W/m 8,4 km/h (2 Bft) 96,61 %
26.08.2016 12:46 32,2 C 40,6 C 32,8 C 59 % 0 lf 1015,0 hPa 0,0 l/m 2 min 0 min 716 W/m 8,4 km/h (2 Bft) 97,14 %
26.08.2016 12:48 32,3 C 40,6 C 32,8 C 59 % 0 lf 1015,0 hPa 0,0 l/m 2 min 0 min 727 W/m 10,5 km/h (2 Bft) 97,87 %
26.08.2016 12:50 32,3 C 41,1 C 33,3 C 58 % 0 lf 1015,0 hPa 0,0 l/m 2 min 0 min 746 W/m 8,4 km/h (2 Bft) 95,65 %
26.08.2016 12:52 32,4 C 42,8 C 33,3 C 59 % 0 lf 1015,0 hPa 0,0 l/m 2 min 0 min 745 W/m 8,4 km/h (2 Bft) 100,00 %
26.08.2016 12:54 32,5 C 42,8 C 33,3 C 59 % 0 lf 1015,0 hPa 0,0 l/m 2 min 0 min 746 W/m 6,3 km/h (2 Bft) 100,00 %
26.08.2016 12:56 32,6 C 42,8 C 33,3 C 58 % 0 lf 1015,0 hPa 0,0 l/m 2 min 0 min 746 W/m 8,4 km/h (2 Bft) 100,00 %
26.08.2016 12:58 32,6 C 42,8 C 31,7 C 57 % 0 lf 1015,0 hPa 0,0 l/m 2 min 0 min 750 W/m 8,4 km/h (2 Bft) 95,74 %
26.08.2016 13:00 32,6 C 43,3 C 32,2 C 58 % 0 lf 1015,0 hPa 0,0 l/m 2 min 0 min 754 W/m 10,5 km/h (2 Bft) 100,00 %
26.08.2016 13:02 32,6 C 43,3 C 32,8 C 58 % 0 lf 1014,9 hPa 0,0 l/m 2 min 0 min 754 W/m 12,6 km/h (3 Bft) 100,00 %
26.08.2016 13:04 32,6 C 43,3 C 33,3 C 57 % 0 lf 1015,0 hPa 0,0 l/m 2 min 0 min 759 W/m 8,4 km/h (2 Bft) 100,00 %
26.08.2016 13:06 32,6 C 43,9 C 33,9 C 58 % 0 lf 1014,9 hPa 0,0 l/m 2 min 0 min 760 W/m 8,4 km/h (2 Bft) 100,00 %
26.08.2016 13:08 32,6 C 43,9 C 34,4 C 58 % 0 lf 1014,9 hPa 0,0 l/m 2 min 0 min 748 W/m 10,5 km/h (2 Bft) 100,00 %
26.08.2016 13:10 32,6 C 43,9 C 33,3 C 57 % 0 lf 1014,9 hPa 0,0 l/m 2 min 0 min 757 W/m 14,6 km/h (3 Bft) 100,00 %
26.08.2016 13:12 32,6 C 43,3 C 32,8 C 57 % 0 lf 1015,0 hPa 0,0 l/m 2 min 0 min 758 W/m 14,6 km/h (3 Bft) 97,83 %
26.08.2016 13:14 32,6 C 43,3 C 32,8 C 58 % 0 lf 1015,0 hPa 0,0 l/m 2 min 0 min 755 W/m 8,4 km/h (2 Bft) 100,00 %
26.08.2016 13:16 32,6 C 42,2 C 32,2 C 58 % 0 lf 1015,0 hPa 0,0 l/m 2 min 0 min 754 W/m 8,4 km/h (2 Bft) 100,00 %
26.08.2016 13:18 32,6 C 42,2 C 32,2 C 58 % 0 lf 1015,0 hPa 0,0 l/m 2 min 0 min 749 W/m 12,6 km/h (3 Bft) 97,87 %
26.08.2016 13:20 32,6 C 41,7 C 31,7 C 57 % 0 lf 1015,0 hPa 0,0 l/m 2 min 0 min 750 W/m 10,5 km/h (2 Bft) 100,00 %
26.08.2016 13:22 32,6 C 41,7 C 31,1 C 57 % 0 lf 1015,0 hPa 0,0 l/m 2 min 0 min 759 W/m 12,6 km/h (3 Bft) 97,92 %
26.08.2016 13:24 32,6 C 42,2 C 31,1 C 58 % 0 lf 1015,0 hPa 0,0 l/m 2 min 0 min 751 W/m 12,6 km/h (3 Bft) 97,83 %
26.08.2016 13:26 32,5 C 42,2 C 30,6 C 57 % 0 lf 1015,0 hPa 0,0 l/m 2 min 0 min 749 W/m 10,5 km/h (2 Bft) 95,74 %
26.08.2016 13:28 32,5 C 42,8 C 31,1 C 58 % 0 lf 1015,0 hPa 0,0 l/m 2 min 0 min 752 W/m 4,2 km/h (1 Bft) 100,00 %
26.08.2016 13:30 32,5 C 43,3 C 31,1 C 59 % 0 lf 1015,0 hPa 0,0 l/m 2 min 0 min 751 W/m 10,5 km/h (2 Bft) 97,87 %
26.08.2016 13:32 32,6 C 42,8 C 31,7 C 59 % 0 lf 1015,0 hPa 0,0 l/m 2 min 0 min 751 W/m 8,4 km/h (2 Bft) 100,00 %
26.08.2016 13:34 32,6 C 42,2 C 31,7 C 59 % 0 lf 1015,0 hPa 0,0 l/m 2 min 0 min 750 W/m 8,4 km/h (2 Bft) 97,83 %
26.08.2016 13:36 32,6 C 43,3 C 31,1 C 58 % 0 lf 1015,1 hPa 0,0 l/m 2 min 0 min 753 W/m 8,4 km/h (2 Bft) 97,87 %
26.08.2016 13:38 32,6 C 42,8 C 31,1 C 57 % 0 lf 1015,1 hPa 0,0 l/m 2 min 0 min 752 W/m 8,4 km/h (2 Bft) 100,00 %
26.08.2016 13:40 32,6 C 42,2 C 31,7 C 58 % 0 lf 1015,1 hPa 0,0 l/m 2 min 0 min 750 W/m 10,5 km/h (2 Bft) 97,87 %
26.08.2016 13:42 32,7 C 42,8 C 31,7 C 59 % 0 lf 1015,0 hPa 0,0 l/m 2 min 0 min 749 W/m 10,5 km/h (2 Bft) 95,74 %
26.08.2016 13:44 32,7 C 42,2 C 31,7 C 58 % 0 lf 1015,0 hPa 0,0 l/m 2 min 0 min 740 W/m 4,2 km/h (1 Bft) 95,74 %
26.08.2016 13:46 32,8 C 42,2 C 32,2 C 59 % 0 lf 1015,0 hPa 0,0 l/m 2 min 0 min 753 W/m 12,6 km/h (3 Bft) 97,83 %
26.08.2016 13:48 32,8 C 42,8 C 31,7 C 58 % 0 lf 1015,1 hPa 0,0 l/m 2 min 0 min 747 W/m 12,6 km/h (3 Bft) 93,62 %
26.08.2016 13:50 32,9 C 42,2 C 31,7 C 58 % 0 lf 1015,1 hPa 0,0 l/m 2 min 0 min 745 W/m 10,5 km/h (2 Bft) 93,62 %
26.08.2016 13:52 32,8 C 42,8 C 31,1 C 57 % 0 lf 1015,2 hPa 0,0 l/m 2 min 0 min 737 W/m 10,5 km/h (2 Bft) 95,74 %
26.08.2016 13:54 32,8 C 40,0 C 31,1 C 58 % 0 lf 1015,1 hPa 0,0 l/m 2 min 0 min 742 W/m 8,4 km/h (2 Bft) 97,87 %
26.08.2016 13:56 32,8 C 41,7 C 31,1 C 59 % 0 lf 1015,2 hPa 0,0 l/m 2 min 0 min 735 W/m 6,3 km/h (2 Bft) 97,87 %
26.08.2016 13:58 32,8 C 42,2 C 31,1 C 57 % 0 lf 1015,1 hPa 0,0 l/m 2 min 0 min 725 W/m 14,6 km/h (3 Bft) 91,30 %
26.08.2016 14:00 32,8 C 42,2 C 30,6 C 58 % 0 lf 1015,2 hPa 0,0 l/m 2 min 0 min 720 W/m 12,6 km/h (3 Bft) 97,87 %
26.08.2016 14:02 32,7 C 42,2 C 30,6 C 58 % 0 lf 1015,2 hPa 0,0 l/m 2 min 0 min 730 W/m 10,5 km/h (2 Bft) 95,74 %
26.08.2016 14:04 32,7 C 41,7 C 30,6 C 58 % 0 lf 1015,2 hPa 0,0 l/m 2 min 0 min 731 W/m 14,6 km/h (3 Bft) 93,62 %
26.08.2016 14:06 32,6 C 41,7 C 30,6 C 58 % 0 lf 1015,2 hPa 0,0 l/m 2 min 0 min 730 W/m 10,5 km/h (2 Bft) 93,02 %
26.08.2016 14:08 32,6 C 42,2 C 31,1 C 58 % 0 lf 1015,2 hPa 0,0 l/m 2 min 0 min 735 W/m 10,5 km/h (2 Bft) 95,74 %
26.08.2016 14:10 32,6 C 42,8 C 31,1 C 58 % 0 lf 1015,2 hPa 0,0 l/m 2 min 0 min 741 W/m 14,6 km/h (3 Bft) 95,74 %
26.08.2016 14:12 32,6 C 41,7 C 31,7 C 59 % 0 lf 1015,2 hPa 0,0 l/m 2 min 0 min 734 W/m 10,5 km/h (2 Bft) 95,65 %
26.08.2016 14:14 32,6 C 42,2 C 31,7 C 58 % 0 lf 1015,2 hPa 0,0 l/m 2 min 0 min 717 W/m 6,3 km/h (2 Bft) 95,74 %
26.08.2016 14:16 32,7 C 42,2 C 31,7 C 59 % 0 lf 1015,2 hPa 0,0 l/m 2 min 0 min 724 W/m 12,6 km/h (3 Bft) 91,49 %
26.08.2016 14:18 32,7 C 42,8 C 31,7 C 59 % 0 lf 1015,2 hPa 0,0 l/m 2 min 0 min 714 W/m 12,6 km/h (3 Bft) 93,62 %
26.08.2016 14:20 32,8 C 43,3 C 31,7 C 57 % 0 lf 1015,1 hPa 0,0 l/m 2 min 0 min 726 W/m 10,5 km/h (2 Bft) 91,49 %
26.08.2016 14:22 32,8 C 43,3 C 31,1 C 58 % 0 lf 1015,1 hPa 0,0 l/m 2 min 0 min 728 W/m 14,6 km/h (3 Bft) 95,65 %
26.08.2016 14:24 32,8 C 42,8 C 31,1 C 57 % 0 lf 1015,2 hPa 0,0 l/m 2 min 0 min 723 W/m 10,5 km/h (2 Bft) 93,62 %
26.08.2016 14:26 32,8 C 42,8 C 31,1 C 57 % 0 lf 1015,2 hPa 0,0 l/m 2 min 0 min 715 W/m 14,6 km/h (3 Bft) 95,74 %
26.08.2016 14:28 32,8 C 41,7 C 31,1 C 57 % 0 lf 1015,2 hPa 0,0 l/m 2 min 0 min 712 W/m 18,8 km/h (3 Bft) 95,74 %
26.08.2016 14:30 32,8 C 41,7 C 31,1 C 57 % 0 lf 1015,2 hPa 0,0 l/m 2 min 0 min 717 W/m 12,6 km/h (3 Bft) 91,49 %
26.08.2016 14:32 32,8 C 41,7 C 31,1 C 57 % 0 lf 1015,1 hPa 0,0 l/m 2 min 0 min 717 W/m 10,5 km/h (2 Bft) 91,67 %
26.08.2016 14:34 32,8 C 41,7 C 32,2 C 57 % 0 lf 1015,2 hPa 0,0 l/m 2 min 0 min 709 W/m 8,4 km/h (2 Bft) 97,83 %
26.08.2016 14:36 32,8 C 42,8 C 32,8 C 57 % 0 lf 1015,2 hPa 0,0 l/m 2 min 0 min 706 W/m 10,5 km/h (2 Bft) 94,00 %
26.08.2016 14:38 32,8 C 42,2 C 33,3 C 57 % 0 lf 1015,2 hPa 0,0 l/m 2 min 0 min 701 W/m 12,6 km/h (3 Bft) 95,74 %
26.08.2016 14:40 32,8 C 41,7 C 33,9 C 57 % 0 lf 1015,2 hPa 0,0 l/m 2 min 0 min 690 W/m 16,7 km/h (3 Bft) 97,87 %
26.08.2016 14:42 32,8 C 41,7 C 34,4 C 57 % 0 lf 1015,2 hPa 0,0 l/m 2 min 0 min 673 W/m 10,5 km/h (2 Bft) 97,87 %
26.08.2016 14:44 32,8 C 42,2 C 35,6 C 58 % 0 lf 1015,2 hPa 0,0 l/m 2 min 0 min 679 W/m 10,5 km/h (2 Bft) 95,74 %
26.08.2016 14:46 32,8 C 41,1 C 35,6 C 57 % 0 lf 1015,2 hPa 0,0 l/m 2 min 0 min 656 W/m 14,6 km/h (3 Bft) 91,30 %
26.08.2016 14:48 32,7 C 41,1 C 35,0 C 58 % 0 lf 1015,3 hPa 0,0 l/m 2 min 0 min 671 W/m 8,4 km/h (2 Bft) 97,87 %
26.08.2016 14:50 32,7 C 40,0 C 36,1 C 59 % 0 lf 1015,3 hPa 0,0 l/m 2 min 0 min 678 W/m 16,7 km/h (3 Bft) 95,74 %
26.08.2016 14:52 32,7 C 41,1 C 37,2 C 59 % 0 lf 1015,3 hPa 0,0 l/m 2 min 0 min 645 W/m 14,6 km/h (3 Bft) 97,87 %
26.08.2016 14:54 32,8 C 42,2 C 37,2 C 58 % 0 lf 1015,3 hPa 0,0 l/m 2 min 0 min 643 W/m 14,6 km/h (3 Bft) 97,87 %
26.08.2016 14:56 32,8 C 41,7 C 37,8 C 59 % 0 lf 1015,3 hPa 0,0 l/m 2 min 0 min 666 W/m 16,7 km/h (3 Bft) 95,65 %
26.08.2016 14:58 32,8 C 41,1 C 37,2 C 58 % 0 lf 1015,4 hPa 0,0 l/m 2 min 0 min 677 W/m 16,7 km/h (3 Bft) 93,62 %
26.08.2016 15:00 32,8 C 41,1 C 37,8 C 58 % 0 lf 1015,3 hPa 0,0 l/m 2 min 0 min 678 W/m 10,5 km/h (2 Bft) 95,74 %
26.08.2016 15:02 32,8 C 41,1 C 36,7 C 58 % 0 lf 1015,3 hPa 0,0 l/m 2 min 0 min 658 W/m 16,7 km/h (3 Bft) 95,74 %
26.08.2016 15:04 32,8 C 40,0 C 36,7 C 58 % 0 lf 1015,3 hPa 0,0 l/m 2 min 0 min 633 W/m 16,7 km/h (3 Bft) 97,87 %
26.08.2016 15:06 32,7 C 40,0 C 36,1 C 58 % 0 lf 1015,3 hPa 0,0 l/m 2 min 0 min 635 W/m 12,6 km/h (3 Bft) 97,62 %
26.08.2016 15:08 32,7 C 40,6 C 35,6 C 58 % 0 lf 1015,3 hPa 0,0 l/m 2 min 0 min 691 W/m 8,4 km/h (2 Bft) 97,87 %
26.08.2016 15:10 32,7 C 40,6 C 35,0 C 58 % 0 lf 1015,3 hPa 0,0 l/m 2 min 0 min 691 W/m 14,6 km/h (3 Bft) 100,00 %
26.08.2016 15:12 32,7 C 40,6 C 35,0 C 59 % 0 lf 1015,3 hPa 0,0 l/m 2 min 0 min 648 W/m 12,6 km/h (3 Bft) 100,00 %
26.08.2016 15:14 32,7 C 40,6 C 35,0 C 58 % 0 lf 1015,4 hPa 0,0 l/m 2 min 0 min 660 W/m 16,7 km/h (3 Bft) 97,87 %
26.08.2016 15:16 32,6 C 41,1 C 35,6 C 58 % 0 lf 1015,4 hPa 0,0 l/m 2 min 0 min 598 W/m 14,6 km/h (3 Bft) 95,74 %
26.08.2016 15:18 32,6 C 41,1 C 36,1 C 59 % 0 lf 1015,4 hPa 0,0 l/m 2 min 0 min 618 W/m 10,5 km/h (2 Bft) 100,00 %
26.08.2016 15:20 32,7 C 41,1 C 36,1 C 59 % 0 lf 1015,4 hPa 0,0 l/m 2 min 0 min 621 W/m 16,7 km/h (3 Bft) 100,00 %
26.08.2016 15:22 32,7 C 39,4 C 34,4 C 58 % 0 lf 1015,4 hPa 0,0 l/m 2 min 0 min 582 W/m 18,8 km/h (3 Bft) 100,00 %
26.08.2016 15:24 32,6 C 39,4 C 33,3 C 58 % 0 lf 1015,4 hPa 0,0 l/m 2 min 0 min 565 W/m 18,8 km/h (3 Bft) 95,74 %
26.08.2016 15:26 32,6 C 40,6 C 33,3 C 59 % 0 lf 1015,4 hPa 0,0 l/m 2 min 0 min 601 W/m 10,5 km/h (2 Bft) 100,00 %
26.08.2016 15:28 32,6 C 40,6 C 33,3 C 58 % 0 lf 1015,4 hPa 0,0 l/m 2 min 0 min 594 W/m 14,6 km/h (3 Bft) 97,87 %
26.08.2016 15:30 32,6 C 40,6 C 32,8 C 58 % 0 lf 1015,4 hPa 0,0 l/m 2 min 0 min 617 W/m 18,8 km/h (3 Bft) 93,62 %
26.08.2016 15:32 32,6 C 40,0 C 32,8 C 58 % 0 lf 1015,5 hPa 0,0 l/m 2 min 0 min 611 W/m 16,7 km/h (3 Bft) 97,87 %
26.08.2016 15:34 32,6 C 40,0 C 32,8 C 58 % 0 lf 1015,5 hPa 0,0 l/m 2 min 0 min 562 W/m 20,9 km/h (4 Bft) 100,00 %
26.08.2016 15:36 32,6 C 39,4 C 32,2 C 58 % 0 lf 1015,5 hPa 0,0 l/m 2 min 0 min 533 W/m 14,6 km/h (3 Bft) 100,00 %
26.08.2016 15:38 32,6 C 39,4 C 32,8 C 58 % 0 lf 1015,5 hPa 0,0 l/m 2 min 0 min 554 W/m 12,6 km/h (3 Bft) 100,00 %
26.08.2016 15:40 32,6 C 39,4 C 32,2 C 57 % 0 lf 1015,5 hPa 0,0 l/m 2 min 0 min 561 W/m 18,8 km/h (3 Bft) 91,49 %
26.08.2016 15:42 32,6 C 38,9 C 32,2 C 58 % 0 lf 1015,5 hPa 0,0 l/m 2 min 0 min 538 W/m 20,9 km/h (4 Bft) 97,87 %
26.08.2016 15:44 32,6 C 38,9 C 32,8 C 57 % 0 lf 1015,5 hPa 0,0 l/m 2 min 0 min 519 W/m 14,6 km/h (3 Bft) 97,83 %
26.08.2016 15:46 32,5 C 38,9 C 32,8 C 58 % 0 lf 1015,5 hPa 0,0 l/m 2 min 0 min 453 W/m 18,8 km/h (3 Bft) 95,74 %
26.08.2016 15:48 32,5 C 38,9 C 32,8 C 58 % 0 lf 1015,5 hPa 0,0 l/m 2 min 0 min 505 W/m 16,7 km/h (3 Bft) 93,62 %
26.08.2016 15:50 32,5 C 37,8 C 32,2 C 57 % 0 lf 1015,5 hPa 0,0 l/m 2 min 0 min 411 W/m 18,8 km/h (3 Bft) 95,74 %
26.08.2016 15:52 32,4 C 37,2 C 31,7 C 58 % 0 lf 1015,5 hPa 0,0 l/m 2 min 0 min 381 W/m 18,8 km/h (3 Bft) 93,62 %
26.08.2016 15:54 32,4 C 36,1 C 31,1 C 58 % 0 lf 1015,5 hPa 0,0 l/m 2 min 0 min 453 W/m 14,6 km/h (3 Bft) 95,74 %
26.08.2016 15:56 32,3 C 36,1 C 31,1 C 58 % 0 lf 1015,5 hPa 0,0 l/m 2 min 0 min 408 W/m 16,7 km/h (3 Bft) 93,48 %
26.08.2016 15:58 32,2 C 36,1 C 31,1 C 58 % 0 lf 1015,5 hPa 0,0 l/m 2 min 0 min 438 W/m 12,6 km/h (3 Bft) 95,74 %
26.08.2016 16:00 32,2 C 37,2 C 31,7 C 58 % 0 lf 1015,5 hPa 0,0 l/m 2 min 0 min 501 W/m 10,5 km/h (2 Bft) 95,74 %
26.08.2016 16:02 32,1 C 36,7 C 31,1 C 59 % 0 lf 1015,5 hPa 0,0 l/m 2 min 0 min 467 W/m 18,8 km/h (3 Bft) 95,74 %
26.08.2016 16:04 32,1 C 36,1 C 31,1 C 59 % 0 lf 1015,5 hPa 0,0 l/m 2 min 0 min 384 W/m 20,9 km/h (4 Bft) 89,36 %
26.08.2016 16:06 32,0 C 35,6 C 31,1 C 59 % 0 lf 1015,6 hPa 0,0 l/m 2 min 0 min 356 W/m 18,8 km/h (3 Bft) 93,88 %
26.08.2016 16:08 31,9 C 35,6 C 31,1 C 59 % 0 lf 1015,5 hPa 0,0 l/m 2 min 0 min 406 W/m 16,7 km/h (3 Bft) 91,30 %
26.08.2016 16:10 31,9 C 36,1 C 31,1 C 59 % 0 lf 1015,5 hPa 0,0 l/m 2 min 0 min 400 W/m 12,6 km/h (3 Bft) 93,62 %
26.08.2016 16:12 31,8 C 36,7 C 31,7 C 59 % 0 lf 1015,5 hPa 0,0 l/m 2 min 0 min 513 W/m 16,7 km/h (3 Bft) 95,74 %
26.08.2016 16:14 31,8 C 37,2 C 31,7 C 59 % 0 lf 1015,5 hPa 0,0 l/m 2 min 0 min 540 W/m 14,6 km/h (3 Bft) 93,62 %
26.08.2016 16:16 31,8 C 37,2 C 31,1 C 60 % 0 lf 1015,5 hPa 0,0 l/m 2 min 0 min 543 W/m 14,6 km/h (3 Bft) 97,87 %
26.08.2016 16:18 31,8 C 36,7 C 31,1 C 60 % 0 lf 1015,5 hPa 0,0 l/m 2 min 0 min 512 W/m 16,7 km/h (3 Bft) 97,83 %
26.08.2016 16:20 31,8 C 36,1 C 30,6 C 60 % 0 lf 1015,5 hPa 0,0 l/m 2 min 0 min 455 W/m 16,7 km/h (3 Bft) 91,49 %
26.08.2016 16:22 31,7 C 36,1 C 30,6 C 60 % 0 lf 1015,6 hPa 0,0 l/m 2 min 0 min 475 W/m 16,7 km/h (3 Bft) 97,87 %
26.08.2016 16:24 31,7 C 36,1 C 30,6 C 60 % 0 lf 1015,6 hPa 0,0 l/m 2 min 0 min 470 W/m 16,7 km/h (3 Bft) 95,74 %
26.08.2016 16:26 31,7 C 36,7 C 30,6 C 60 % 0 lf 1015,6 hPa 0,0 l/m 2 min 0 min 507 W/m 18,8 km/h (3 Bft) 93,62 %
26.08.2016 16:28 31,6 C 36,7 C 30,6 C 60 % 0 lf 1015,6 hPa 0,0 l/m 2 min 0 min 533 W/m 14,6 km/h (3 Bft) 97,87 %
26.08.2016 16:30 31,6 C 36,7 C 31,1 C 61 % 0 lf 1015,6 hPa 0,0 l/m 2 min 0 min 548 W/m 14,6 km/h (3 Bft) 93,48 %
26.08.2016 16:32 31,6 C 37,2 C 31,1 C 61 % 0 lf 1015,5 hPa 0,0 l/m 2 min 0 min 546 W/m 14,6 km/h (3 Bft) 97,87 %
26.08.2016 16:34 31,6 C 37,2 C 31,1 C 61 % 0 lf 1015,5 hPa 0,0 l/m 2 min 0 min 526 W/m 18,8 km/h (3 Bft) 97,87 %
26.08.2016 16:36 31,6 C 37,8 C 31,1 C 61 % 0 lf 1015,6 hPa 0,0 l/m 2 min 0 min 492 W/m 12,6 km/h (3 Bft) 93,62 %
26.08.2016 16:38 31,7 C 37,2 C 31,1 C 60 % 0 lf 1015,5 hPa 0,0 l/m 2 min 0 min 485 W/m 16,7 km/h (3 Bft) 89,36 %
26.08.2016 16:40 31,7 C 37,8 C 31,1 C 60 % 0 lf 1015,6 hPa 0,0 l/m 2 min 0 min 469 W/m 12,6 km/h (3 Bft) 95,74 %
26.08.2016 16:42 31,7 C 37,2 C 31,1 C 60 % 0 lf 1015,5 hPa 0,0 l/m 2 min 0 min 471 W/m 14,6 km/h (3 Bft) 97,83 %
26.08.2016 16:44 31,7 C 37,2 C 31,1 C 60 % 0 lf 1015,5 hPa 0,0 l/m 2 min 0 min 416 W/m 8,4 km/h (2 Bft) 97,87 %
26.08.2016 16:46 31,7 C 37,2 C 31,1 C 60 % 0 lf 1015,5 hPa 0,0 l/m 2 min 0 min 424 W/m 10,5 km/h (2 Bft) 95,74 %
26.08.2016 16:48 31,7 C 37,2 C 31,1 C 61 % 0 lf 1015,5 hPa 0,0 l/m 2 min 0 min 441 W/m 16,7 km/h (3 Bft) 95,74 %
26.08.2016 16:50 31,7 C 36,7 C 31,1 C 60 % 0 lf 1015,6 hPa 0,0 l/m 2 min 0 min 418 W/m 12,6 km/h (3 Bft) 95,74 %
26.08.2016 16:52 31,7 C 36,7 C 31,1 C 60 % 0 lf 1015,5 hPa 0,0 l/m 2 min 0 min 409 W/m 12,6 km/h (3 Bft) 95,74 %
26.08.2016 16:54 31,7 C 36,7 C 31,1 C 60 % 0 lf 1015,5 hPa 0,0 l/m 2 min 0 min 456 W/m 14,6 km/h (3 Bft) 95,65 %
26.08.2016 16:56 31,7 C 37,2 C 31,1 C 61 % 0 lf 1015,5 hPa 0,0 l/m 2 min 0 min 442 W/m 14,6 km/h (3 Bft) 91,49 %
26.08.2016 16:58 31,7 C 37,2 C 31,1 C 61 % 0 lf 1015,6 hPa 0,0 l/m 2 min 0 min 430 W/m 10,5 km/h (2 Bft) 95,74 %
26.08.2016 17:00 31,7 C 36,1 C 31,1 C 60 % 0 lf 1015,5 hPa 0,0 l/m 2 min 0 min 415 W/m 12,6 km/h (3 Bft) 97,87 %
26.08.2016 17:02 31,7 C 35,6 C 30,6 C 60 % 0 lf 1015,5 hPa 0,0 l/m 2 min 0 min 404 W/m 16,7 km/h (3 Bft) 97,87 %
26.08.2016 17:04 31,7 C 35,6 C 30,6 C 60 % 0 lf 1015,6 hPa 0,0 l/m 2 min 0 min 435 W/m 12,6 km/h (3 Bft) 94,23 %
26.08.2016 17:06 31,6 C 36,1 C 30,6 C 60 % 0 lf 1015,6 hPa 0,0 l/m 2 min 0 min 433 W/m 10,5 km/h (2 Bft) 95,35 %
26.08.2016 17:08 31,6 C 36,1 C 30,6 C 60 % 0 lf 1015,5 hPa 0,0 l/m 2 min 0 min 460 W/m 14,6 km/h (3 Bft) 95,74 %
26.08.2016 17:10 31,6 C 36,1 C 30,6 C 60 % 0 lf 1015,5 hPa 0,0 l/m 2 min 0 min 444 W/m 14,6 km/h (3 Bft) 93,62 %
26.08.2016 17:12 31,6 C 35,6 C 30,6 C 59 % 0 lf 1015,6 hPa 0,0 l/m 2 min 0 min 351 W/m 10,5 km/h (2 Bft) 91,30 %
26.08.2016 17:14 31,6 C 35,6 C 30,0 C 60 % 0 lf 1015,5 hPa 0,0 l/m 2 min 0 min 349 W/m 10,5 km/h (2 Bft) 93,62 %
26.08.2016 17:16 31,5 C 36,1 C 30,0 C 60 % 0 lf 1015,5 hPa 0,0 l/m 2 min 0 min 401 W/m 12,6 km/h (3 Bft) 95,74 %
26.08.2016 17:18 31,6 C 36,1 C 30,6 C 60 % 0 lf 1015,5 hPa 0,0 l/m 2 min 0 min 378 W/m 14,6 km/h (3 Bft) 93,62 %
26.08.2016 17:20 31,5 C 35,0 C 30,0 C 59 % 0 lf 1015,5 hPa 0,0 l/m 2 min 0 min 298 W/m 14,6 km/h (3 Bft) 93,62 %
26.08.2016 17:22 31,5 C 35,0 C 30,0 C 59 % 0 lf 1015,6 hPa 0,0 l/m 2 min 0 min 296 W/m 20,9 km/h (4 Bft) 93,48 %
26.08.2016 17:24 31,4 C 34,4 C 30,0 C 59 % 0 lf 1015,6 hPa 0,0 l/m 2 min 0 min 267 W/m 20,9 km/h (4 Bft) 95,74 %
26.08.2016 17:26 31,4 C 34,4 C 30,0 C 59 % 0 lf 1015,6 hPa 0,0 l/m 2 min 0 min 265 W/m 14,6 km/h (3 Bft) 93,62 %
26.08.2016 17:28 31,4 C 34,4 C 30,0 C 58 % 0 lf 1015,6 hPa 0,0 l/m 2 min 0 min 280 W/m 14,6 km/h (3 Bft) 95,74 %
26.08.2016 17:30 31,4 C 33,9 C 30,0 C 58 % 0 lf 1015,6 hPa 0,0 l/m 2 min 0 min 266 W/m 10,5 km/h (2 Bft) 93,62 %
26.08.2016 17:32 31,3 C 33,9 C 30,0 C 58 % 0 lf 1015,6 hPa 0,0 l/m 2 min 0 min 270 W/m 12,6 km/h (3 Bft) 95,74 %
26.08.2016 17:34 31,3 C 33,9 C 30,0 C 59 % 0 lf 1015,7 hPa 0,0 l/m 2 min 0 min 293 W/m 10,5 km/h (2 Bft) 93,48 %
26.08.2016 17:36 31,3 C 33,9 C 30,0 C 59 % 0 lf 1015,7 hPa 0,0 l/m 2 min 0 min 308 W/m 10,5 km/h (2 Bft) 93,62 %
26.08.2016 17:38 31,3 C 33,3 C 30,0 C 58 % 0 lf 1015,6 hPa 0,0 l/m 2 min 0 min 292 W/m 12,6 km/h (3 Bft) 91,49 %
26.08.2016 17:40 31,2 C 33,9 C 30,0 C 59 % 0 lf 1015,6 hPa 0,0 l/m 2 min 0 min 298 W/m 8,4 km/h (2 Bft) 93,62 %
26.08.2016 17:42 31,2 C 33,9 C 30,0 C 59 % 0 lf 1015,6 hPa 0,0 l/m 2 min 0 min 324 W/m 6,3 km/h (2 Bft) 93,62 %
26.08.2016 17:44 31,2 C 33,3 C 30,0 C 58 % 0 lf 1015,6 hPa 0,0 l/m 2 min 0 min 318 W/m 12,6 km/h (3 Bft) 91,49 %
26.08.2016 17:46 31,2 C 33,3 C 30,0 C 59 % 0 lf 1015,6 hPa 0,0 l/m 2 min 0 min 345 W/m 8,4 km/h (2 Bft) 95,65 %
26.08.2016 17:48 31,2 C 33,3 C 30,0 C 59 % 0 lf 1015,5 hPa 0,0 l/m 2 min 0 min 338 W/m 12,6 km/h (3 Bft) 95,74 %
26.08.2016 17:50 31,2 C 33,3 C 30,0 C 58 % 0 lf 1015,5 hPa 0,0 l/m 2 min 0 min 342 W/m 12,6 km/h (3 Bft) 97,87 %
26.08.2016 17:52 31,2 C 32,8 C 29,4 C 58 % 0 lf 1015,5 hPa 0,0 l/m 2 min 0 min 344 W/m 12,6 km/h (3 Bft) 97,87 %
26.08.2016 17:54 31,2 C 33,3 C 29,4 C 58 % 0 lf 1015,6 hPa 0,0 l/m 2 min 0 min 361 W/m 10,5 km/h (2 Bft) 97,87 %
26.08.2016 17:56 31,1 C 33,9 C 29,4 C 59 % 0 lf 1015,6 hPa 0,0 l/m 2 min 0 min 299 W/m 8,4 km/h (2 Bft) 97,87 %
26.08.2016 17:58 31,1 C 33,3 C 29,4 C 59 % 0 lf 1015,5 hPa 0,0 l/m 2 min 0 min 259 W/m 10,5 km/h (2 Bft) 95,65 %
26.08.2016 18:00 31,1 C 32,8 C 29,4 C 59 % 0 lf 1015,6 hPa 0,0 l/m 2 min 0 min 266 W/m 12,6 km/h (3 Bft) 97,87 %
26.08.2016 18:02 31,1 C 32,8 C 29,4 C 58 % 0 lf 1015,6 hPa 0,0 l/m 2 min 0 min 259 W/m 10,5 km/h (2 Bft) 95,74 %
26.08.2016 18:06 31,1 C 32,2 C 28,9 C 59 % 0 lf 1015,5 hPa 0,0 l/m 2 min 0 min 248 W/m 12,6 km/h (3 Bft) 95,79 %
26.08.2016 18:08 31,1 C 32,2 C 28,9 C 59 % 0 lf 1015,5 hPa 0,0 l/m 2 min 0 min 269 W/m 14,6 km/h (3 Bft) 97,87 %
26.08.2016 18:10 31,0 C 32,2 C 28,9 C 59 % 0 lf 1015,5 hPa 0,0 l/m 2 min 0 min 254 W/m 4,2 km/h (1 Bft) 93,48 %
26.08.2016 18:12 31,0 C 32,2 C 28,9 C 60 % 0 lf 1015,4 hPa 0,0 l/m 2 min 0 min 267 W/m 8,4 km/h (2 Bft) 97,87 %
26.08.2016 18:14 31,0 C 32,2 C 28,9 C 60 % 0 lf 1015,5 hPa 0,0 l/m 2 min 0 min 260 W/m 16,7 km/h (3 Bft) 93,62 %
26.08.2016 18:16 31,0 C 32,2 C 28,9 C 61 % 0 lf 1015,4 hPa 0,0 l/m 2 min 0 min 283 W/m 12,6 km/h (3 Bft) 100,00 %
26.08.2016 18:18 31,0 C 31,7 C 28,9 C 60 % 0 lf 1015,4 hPa 0,0 l/m 2 min 0 min 272 W/m 16,7 km/h (3 Bft) 100,00 %
26.08.2016 18:20 30,9 C 31,7 C 28,9 C 60 % 0 lf 1015,4 hPa 0,0 l/m 2 min 0 min 254 W/m 16,7 km/h (3 Bft) 95,74 %
26.08.2016 18:22 30,9 C 31,1 C 28,9 C 61 % 0 lf 1015,4 hPa 0,0 l/m 2 min 0 min 205 W/m 14,6 km/h (3 Bft) 97,83 %
26.08.2016 18:24 30,8 C 31,1 C 28,3 C 60 % 0 lf 1015,4 hPa 0,0 l/m 0 min 0 min 142 W/m 12,6 km/h (3 Bft) 100,00 %
26.08.2016 18:26 30,8 C 31,1 C 28,3 C 61 % 0 lf 1015,4 hPa 0,0 l/m 0 min 0 min 121 W/m 14,6 km/h (3 Bft) 100,00 %
26.08.2016 18:28 30,8 C 31,1 C 28,3 C 61 % 0 lf 1015,5 hPa 0,0 l/m 0 min 0 min 116 W/m 12,6 km/h (3 Bft) 97,87 %
26.08.2016 18:30 30,7 C 30,6 C 28,3 C 61 % 0 lf 1015,5 hPa 0,0 l/m 0 min 0 min 104 W/m 12,6 km/h (3 Bft) 100,00 %
26.08.2016 18:32 30,7 C 30,6 C 28,3 C 61 % 0 lf 1015,5 hPa 0,0 l/m 0 min 0 min 121 W/m 8,4 km/h (2 Bft) 100,00 %
26.08.2016 18:34 30,6 C 30,6 C 28,3 C 62 % 0 lf 1015,5 hPa 0,0 l/m 0 min 0 min 125 W/m 12,6 km/h (3 Bft) 100,00 %
26.08.2016 18:36 30,6 C 30,6 C 28,3 C 62 % 0 lf 1015,5 hPa 0,0 l/m 2 min 0 min 148 W/m 12,6 km/h (3 Bft) 95,74 %
26.08.2016 18:38 30,5 C 30,6 C 28,3 C 62 % 0 lf 1015,5 hPa 0,0 l/m 2 min 0 min 180 W/m 10,5 km/h (2 Bft) 97,87 %
26.08.2016 18:40 30,4 C 30,6 C 28,3 C 62 % 0 lf 1015,5 hPa 0,0 l/m 2 min 0 min 194 W/m 10,5 km/h (2 Bft) 95,74 %
26.08.2016 18:42 30,4 C 30,6 C 28,3 C 62 % 0 lf 1015,5 hPa 0,0 l/m 2 min 0 min 185 W/m 8,4 km/h (2 Bft) 100,00 %
26.08.2016 18:44 30,4 C 30,6 C 28,3 C 62 % 0 lf 1015,5 hPa 0,0 l/m 2 min 0 min 178 W/m 10,5 km/h (2 Bft) 95,65 %
26.08.2016 18:46 30,3 C 30,6 C 28,3 C 62 % 0 lf 1015,5 hPa 0,0 l/m 2 min 0 min 205 W/m 10,5 km/h (2 Bft) 100,00 %
26.08.2016 18:48 30,3 C 31,1 C 28,3 C 62 % 0 lf 1015,4 hPa 0,0 l/m 2 min 0 min 212 W/m 8,4 km/h (2 Bft) 100,00 %
26.08.2016 18:50 30,3 C 31,1 C 28,3 C 62 % 0 lf 1015,4 hPa 0,0 l/m 2 min 0 min 212 W/m 10,5 km/h (2 Bft) 97,87 %
26.08.2016 18:52 30,3 C 31,1 C 28,3 C 62 % 0 lf 1015,4 hPa 0,0 l/m 2 min 0 min 196 W/m 8,4 km/h (2 Bft) 97,87 %
26.08.2016 18:54 30,2 C 31,1 C 28,9 C 62 % 0 lf 1015,5 hPa 0,0 l/m 2 min 0 min 178 W/m 12,6 km/h (3 Bft) 95,74 %
26.08.2016 18:56 30,2 C 31,1 C 28,9 C 62 % 0 lf 1015,6 hPa 0,0 l/m 2 min 0 min 168 W/m 10,5 km/h (2 Bft) 100,00 %
26.08.2016 18:58 30,2 C 31,1 C 28,9 C 62 % 0 lf 1015,5 hPa 0,0 l/m 2 min 0 min 172 W/m 12,6 km/h (3 Bft) 100,00 %
26.08.2016 19:00 30,2 C 31,1 C 28,9 C 62 % 0 lf 1015,6 hPa 0,0 l/m 2 min 0 min 176 W/m 12,6 km/h (3 Bft) 97,87 %
26.08.2016 19:02 30,2 C 31,1 C 28,9 C 62 % 0 lf 1015,6 hPa 0,0 l/m 2 min 0 min 175 W/m 10,5 km/h (2 Bft) 97,87 %
26.08.2016 19:04 30,2 C 31,1 C 28,9 C 62 % 0 lf 1015,6 hPa 0,0 l/m 2 min 0 min 159 W/m 8,4 km/h (2 Bft) 100,00 %
26.08.2016 19:06 30,2 C 31,1 C 28,9 C 62 % 0 lf 1015,6 hPa 0,0 l/m 2 min 0 min 170 W/m 12,6 km/h (3 Bft) 100,00 %
26.08.2016 19:08 30,2 C 31,1 C 28,9 C 62 % 0 lf 1015,6 hPa 0,0 l/m 2 min 0 min 172 W/m 10,5 km/h (2 Bft) 95,65 %
26.08.2016 19:10 30,2 C 30,6 C 28,9 C 62 % 0 lf 1015,6 hPa 0,0 l/m 2 min 0 min 167 W/m 10,5 km/h (2 Bft) 97,87 %
26.08.2016 19:12 30,2 C 30,6 C 28,3 C 62 % 0 lf 1015,6 hPa 0,0 l/m 2 min 0 min 154 W/m 16,7 km/h (3 Bft) 91,49 %
26.08.2016 19:14 30,1 C 30,6 C 28,3 C 62 % 0 lf 1015,6 hPa 0,0 l/m 2 min 0 min 149 W/m 10,5 km/h (2 Bft) 97,87 %
26.08.2016 19:16 30,1 C 30,6 C 28,3 C 62 % 0 lf 1015,6 hPa 0,0 l/m 2 min 0 min 138 W/m 10,5 km/h (2 Bft) 97,87 %
26.08.2016 19:18 30,1 C 30,6 C 28,3 C 62 % 0 lf 1015,6 hPa 0,0 l/m 2 min 0 min 118 W/m 14,6 km/h (3 Bft) 95,74 %
26.08.2016 19:20 30,1 C 30,6 C 28,3 C 62 % 0 lf 1015,6 hPa 0,0 l/m 2 min 0 min 105 W/m 14,6 km/h (3 Bft) 95,65 %
26.08.2016 19:22 30,1 C 30,0 C 28,3 C 62 % 0 lf 1015,6 hPa 0,0 l/m 2 min 0 min 104 W/m 14,6 km/h (3 Bft) 95,74 %
26.08.2016 19:24 30,1 C 30,0 C 27,8 C 62 % 0 lf 1015,6 hPa 0,0 l/m 2 min 0 min 93 W/m 10,5 km/h (2 Bft) 97,87 %
26.08.2016 19:26 30,0 C 30,0 C 27,8 C 62 % 0 lf 1015,7 hPa 0,0 l/m 2 min 0 min 85 W/m 12,6 km/h (3 Bft) 97,87 %
26.08.2016 19:28 30,0 C 30,0 C 27,8 C 62 % 0 lf 1015,7 hPa 0,0 l/m 2 min 0 min 77 W/m 16,7 km/h (3 Bft) 97,87 %
26.08.2016 19:30 29,9 C 29,4 C 27,8 C 62 % 0 lf 1015,7 hPa 0,0 l/m 0 min 0 min 72 W/m 10,5 km/h (2 Bft) 93,62 %
26.08.2016 19:32 29,9 C 29,4 C 27,8 C 62 % 0 lf 1015,6 hPa 0,0 l/m 0 min 0 min 66 W/m 18,8 km/h (3 Bft) 97,83 %
26.08.2016 19:34 29,8 C 29,4 C 27,8 C 62 % 0 lf 1015,6 hPa 0,0 l/m 0 min 0 min 62 W/m 12,6 km/h (3 Bft) 91,49 %
26.08.2016 19:36 29,8 C 29,4 C 27,2 C 62 % 0 lf 1015,7 hPa 0,0 l/m 0 min 0 min 60 W/m 12,6 km/h (3 Bft) 93,62 %
26.08.2016 19:38 29,8 C 29,4 C 27,2 C 62 % 0 lf 1015,7 hPa 0,0 l/m 0 min 0 min 54 W/m 10,5 km/h (2 Bft) 95,74 %
26.08.2016 19:40 29,7 C 28,9 C 27,2 C 62 % 0 lf 1015,7 hPa 0,0 l/m 0 min 0 min 53 W/m 12,6 km/h (3 Bft) 93,62 %
26.08.2016 19:42 29,7 C 28,9 C 27,2 C 62 % 0 lf 1015,7 hPa 0,0 l/m 0 min 0 min 52 W/m 10,5 km/h (2 Bft) 95,65 %
26.08.2016 19:44 29,6 C 28,9 C 27,2 C 62 % 0 lf 1015,8 hPa 0,0 l/m 0 min 0 min 48 W/m 10,5 km/h (2 Bft) 89,36 %
26.08.2016 19:46 29,6 C 28,9 C 26,7 C 62 % 0 lf 1015,7 hPa 0,0 l/m 0 min 0 min 46 W/m 12,6 km/h (3 Bft) 89,36 %
26.08.2016 19:48 29,5 C 28,9 C 26,7 C 63 % 0 lf 1015,8 hPa 0,0 l/m 0 min 0 min 43 W/m 10,5 km/h (2 Bft) 95,74 %
26.08.2016 19:50 29,4 C 28,9 C 26,7 C 63 % 0 lf 1015,8 hPa 0,0 l/m 0 min 0 min 42 W/m 12,6 km/h (3 Bft) 93,62 %
26.08.2016 19:52 29,4 C 28,3 C 26,7 C 63 % 0 lf 1015,8 hPa 0,0 l/m 0 min 0 min 41 W/m 10,5 km/h (2 Bft) 91,49 %
26.08.2016 19:54 29,3 C 28,3 C 26,7 C 63 % 0 lf 1015,8 hPa 0,0 l/m 0 min 0 min 39 W/m 12,6 km/h (3 Bft) 91,30 %
26.08.2016 19:56 29,3 C 28,3 C 26,1 C 63 % 0 lf 1015,8 hPa 0,0 l/m 0 min 0 min 37 W/m 10,5 km/h (2 Bft) 89,36 %
26.08.2016 19:58 29,2 C 28,3 C 26,7 C 63 % 0 lf 1015,8 hPa 0,0 l/m 2 min 0 min 38 W/m 12,6 km/h (3 Bft) 93,62 %
26.08.2016 20:00 29,2 C 28,3 C 26,1 C 64 % 0 lf 1015,8 hPa 0,0 l/m 2 min 0 min 37 W/m 12,6 km/h (3 Bft) 95,74 %
26.08.2016 20:02 29,1 C 28,3 C 26,1 C 64 % 0 lf 1015,8 hPa 0,0 l/m 2 min 0 min 37 W/m 12,6 km/h (3 Bft) 93,62 %
26.08.2016 20:04 29,1 C 27,8 C 26,1 C 64 % 0 lf 1015,8 hPa 0,0 l/m 2 min 0 min 32 W/m 10,5 km/h (2 Bft) 95,74 %
26.08.2016 20:06 29,0 C 27,8 C 26,1 C 64 % 0 lf 1015,8 hPa 0,0 l/m 2 min 0 min 30 W/m 6,3 km/h (2 Bft) 95,65 %
26.08.2016 20:08 28,9 C 27,8 C 26,1 C 65 % 0 lf 1015,8 hPa 0,0 l/m 2 min 0 min 29 W/m 8,4 km/h (2 Bft) 93,62 %
26.08.2016 20:10 28,9 C 27,8 C 25,6 C 65 % 0 lf 1015,9 hPa 0,0 l/m 2 min 0 min 25 W/m 8,4 km/h (2 Bft) 91,49 %
26.08.2016 20:12 28,8 C 27,8 C 25,6 C 66 % 0 lf 1016,0 hPa 0,0 l/m 2 min 0 min 23 W/m 10,5 km/h (2 Bft) 91,49 %
26.08.2016 20:14 28,7 C 27,8 C 25,6 C 66 % 0 lf 1016,0 hPa 0,0 l/m 2 min 0 min 21 W/m 14,6 km/h (3 Bft) 89,36 %
26.08.2016 20:16 28,7 C 27,2 C 25,6 C 66 % 0 lf 1016,1 hPa 0,0 l/m 2 min 0 min 19 W/m 14,6 km/h (3 Bft) 97,87 %
26.08.2016 20:18 28,6 C 27,2 C 25,6 C 67 % 0 lf 1016,1 hPa 0,0 l/m 0 min 0 min 18 W/m 16,7 km/h (3 Bft) 89,13 %
26.08.2016 20:20 28,6 C 27,2 C 25,6 C 67 % 0 lf 1016,1 hPa 0,0 l/m 0 min 0 min 17 W/m 10,5 km/h (2 Bft) 93,62 %
26.08.2016 20:22 28,5 C 27,2 C 25,6 C 68 % 0 lf 1016,1 hPa 0,0 l/m 0 min 0 min 16 W/m 6,3 km/h (2 Bft) 96,00 %
26.08.2016 20:24 28,4 C 27,2 C 25,6 C 68 % 0 lf 1016,3 hPa 0,0 l/m 0 min 0 min 15 W/m 16,7 km/h (3 Bft) 97,87 %
26.08.2016 20:26 28,3 C 27,2 C 25,0 C 69 % 0 lf 1016,2 hPa 0,0 l/m 0 min 0 min 14 W/m 16,7 km/h (3 Bft) 97,87 %
26.08.2016 20:28 28,2 C 26,7 C 25,6 C 69 % 0 lf 1016,3 hPa 0,0 l/m 0 min 0 min 12 W/m 18,8 km/h (3 Bft) 95,74 %
26.08.2016 20:30 28,1 C 26,7 C 25,0 C 69 % 0 lf 1016,3 hPa 0,0 l/m 0 min 0 min 12 W/m 18,8 km/h (3 Bft) 95,65 %
26.08.2016 20:32 28,0 C 26,7 C 25,0 C 69 % 0 lf 1016,2 hPa 0,0 l/m 0 min 0 min 12 W/m 16,7 km/h (3 Bft) 97,87 %
26.08.2016 20:34 27,9 C 26,7 C 25,0 C 70 % 0 lf 1016,3 hPa 0,0 l/m 0 min 0 min 12 W/m 8,4 km/h (2 Bft) 97,87 %
26.08.2016 20:36 27,8 C 26,7 C 25,0 C 70 % 0 lf 1016,3 hPa 0,0 l/m 0 min 0 min 12 W/m 10,5 km/h (2 Bft) 93,62 %
26.08.2016 20:38 27,7 C 26,1 C 25,0 C 70 % 0 lf 1016,3 hPa 0,0 l/m 0 min 0 min 12 W/m 14,6 km/h (3 Bft) 97,87 %
26.08.2016 20:40 27,6 C 26,1 C 24,4 C 70 % 0 lf 1016,3 hPa 0,0 l/m 0 min 0 min 13 W/m 14,6 km/h (3 Bft) 95,65 %
26.08.2016 20:42 27,5 C 26,1 C 24,4 C 70 % 0 lf 1016,4 hPa 0,0 l/m 0 min 0 min 10 W/m 14,6 km/h (3 Bft) 95,74 %
26.08.2016 20:44 27,4 C 26,1 C 24,4 C 70 % 0 lf 1016,4 hPa 0,0 l/m 0 min 0 min 9 W/m 14,6 km/h (3 Bft) 97,87 %
26.08.2016 20:46 27,3 C 26,1 C 24,4 C 70 % 0 lf 1016,4 hPa 0,0 l/m 0 min 0 min 7 W/m 14,6 km/h (3 Bft) 95,74 %
26.08.2016 20:48 27,3 C 26,1 C 24,4 C 71 % 0 lf 1016,4 hPa 0,0 l/m 0 min 0 min 0 W/m 12,6 km/h (3 Bft) 97,87 %
26.08.2016 20:50 27,2 C 26,1 C 24,4 C 71 % 0 lf 1016,5 hPa 0,0 l/m 0 min 0 min 0 W/m 10,5 km/h (2 Bft) 97,87 %
26.08.2016 20:52 27,1 C 25,6 C 24,4 C 71 % 0 lf 1016,5 hPa 0,0 l/m 0 min 0 min 5 W/m 12,6 km/h (3 Bft) 95,65 %
26.08.2016 20:54 27,1 C 25,6 C 23,9 C 71 % 0 lf 1016,5 hPa 0,0 l/m 0 min 0 min 0 W/m 12,6 km/h (3 Bft) 91,49 %
26.08.2016 20:56 26,9 C 25,6 C 23,9 C 71 % 0 lf 1016,5 hPa 0,0 l/m 0 min 0 min 5 W/m 10,5 km/h (2 Bft) 95,74 %
26.08.2016 20:58 26,9 C 25,6 C 23,9 C 71 % 0 lf 1016,6 hPa 0,0 l/m 0 min 0 min 5 W/m 12,6 km/h (3 Bft) 95,74 %
26.08.2016 21:00 26,8 C 25,6 C 23,9 C 71 % 0 lf 1016,6 hPa 0,0 l/m 0 min 0 min 5 W/m 12,6 km/h (3 Bft) 95,74 %
26.08.2016 21:02 26,7 C 25,6 C 23,9 C 71 % 0 lf 1016,5 hPa 0,0 l/m 0 min 0 min 5 W/m 16,7 km/h (3 Bft) 100,00 %
26.08.2016 21:04 26,6 C 25,6 C 23,9 C 72 % 0 lf 1016,6 hPa 0,0 l/m 0 min 0 min 5 W/m 18,8 km/h (3 Bft) 95,65 %
26.08.2016 21:06 26,6 C 25,6 C 23,9 C 72 % 0 lf 1016,6 hPa 0,0 l/m 0 min 0 min 5 W/m 12,6 km/h (3 Bft) 97,87 %
26.08.2016 21:08 26,4 C 25,6 C 23,9 C 72 % 0 lf 1016,5 hPa 0,0 l/m 0 min 0 min 0 W/m 12,6 km/h (3 Bft) 100,00 %
26.08.2016 21:10 26,4 C 25,0 C 23,9 C 72 % 0 lf 1016,6 hPa 0,0 l/m 0 min 0 min 0 W/m 14,6 km/h (3 Bft) 93,62 %
26.08.2016 21:12 26,3 C 25,0 C 23,9 C 73 % 0 lf 1016,6 hPa 0,0 l/m 0 min 0 min 0 W/m 12,6 km/h (3 Bft) 97,87 %
26.08.2016 21:14 26,3 C 25,0 C 23,9 C 73 % 0 lf 1016,6 hPa 0,0 l/m 0 min 0 min 0 W/m 10,5 km/h (2 Bft) 100,00 %
26.08.2016 21:16 26,2 C 25,0 C 23,3 C 73 % 0 lf 1016,6 hPa 0,0 l/m 0 min 0 min 0 W/m 12,6 km/h (3 Bft) 97,83 %
26.08.2016 21:18 26,1 C 25,0 C 23,3 C 73 % 0 lf 1016,6 hPa 0,0 l/m 0 min 0 min 0 W/m 16,7 km/h (3 Bft) 97,87 %
26.08.2016 21:20 26,1 C 25,0 C 23,3 C 73 % 0 lf 1016,6 hPa 0,0 l/m 0 min 0 min 0 W/m 14,6 km/h (3 Bft) 100,00 %
26.08.2016 21:22 26,0 C 25,0 C 23,3 C 74 % 0 lf 1016,7 hPa 0,0 l/m 0 min 0 min 0 W/m 12,6 km/h (3 Bft) 97,87 %
26.08.2016 21:24 25,9 C 25,0 C 23,3 C 74 % 0 lf 1016,8 hPa 0,0 l/m 0 min 0 min 0 W/m 16,7 km/h (3 Bft) 100,00 %
26.08.2016 21:26 25,9 C 25,0 C 23,3 C 74 % 0 lf 1016,8 hPa 0,0 l/m 0 min 0 min 0 W/m 14,6 km/h (3 Bft) 97,87 %
26.08.2016 21:28 25,8 C 25,0 C 23,3 C 74 % 0 lf 1016,8 hPa 0,0 l/m 0 min 0 min 0 W/m 12,6 km/h (3 Bft) 100,00 %
26.08.2016 21:30 25,7 C 25,0 C 23,3 C 74 % 0 lf 1016,8 hPa 0,0 l/m 0 min 0 min 0 W/m 14,6 km/h (3 Bft) 100,00 %
26.08.2016 21:32 25,7 C 25,0 C 23,3 C 74 % 0 lf 1016,8 hPa 0,0 l/m 0 min 0 min 0 W/m 14,6 km/h (3 Bft) 100,00 %
26.08.2016 21:34 25,6 C 25,0 C 23,3 C 75 % 0 lf 1016,9 hPa 0,0 l/m 0 min 0 min 0 W/m 12,6 km/h (3 Bft) 100,00 %
26.08.2016 21:36 25,6 C 24,4 C 23,3 C 75 % 0 lf 1016,9 hPa 0,0 l/m 0 min 0 min 0 W/m 14,6 km/h (3 Bft) 97,87 %
26.08.2016 21:38 25,5 C 24,4 C 23,3 C 75 % 0 lf 1016,9 hPa 0,0 l/m 0 min 0 min 0 W/m 14,6 km/h (3 Bft) 97,87 %
26.08.2016 21:39 25,5 C 24,4 C 22,8 C 75 % 0 lf 1016,9 hPa 0,0 l/m 0 min 0 min 0 W/m 8,4 km/h (2 Bft) 95,65 %
26.08.2016 21:40 25,4 C 24,4 C 22,8 C 75 % 0 lf 1016,9 hPa 0,0 l/m 0 min 0 min 0 W/m 8,4 km/h (2 Bft) 100,00 %
26.08.2016 21:41 25,4 C 24,4 C 22,8 C 75 % 0 lf 1016,9 hPa 0,0 l/m 0 min 0 min 0 W/m 8,4 km/h (2 Bft) 100,00 %
26.08.2016 21:42 25,4 C 24,4 C 22,8 C 75 % 0 lf 1016,9 hPa 0,0 l/m 0 min 0 min 0 W/m 6,3 km/h (2 Bft) 96,09 %
26.08.2016 21:44 25,4 C 24,4 C 22,8 C 75 % 0 lf 1016,9 hPa 0,0 l/m 0 min 0 min 0 W/m 14,6 km/h (3 Bft) 100,00 %
26.08.2016 21:46 25,3 C 24,4 C 22,8 C 76 % 0 lf 1017,0 hPa 0,0 l/m 0 min 0 min 0 W/m 16,7 km/h (3 Bft) 100,00 %
26.08.2016 21:48 25,3 C 24,4 C 22,8 C 76 % 0 lf 1016,9 hPa 0,0 l/m 0 min 0 min 0 W/m 16,7 km/h (3 Bft) 96,43 %
26.08.2016 21:50 25,2 C 24,4 C 22,8 C 76 % 0 lf 1017,0 hPa 0,0 l/m 0 min 0 min 0 W/m 12,6 km/h (3 Bft) 97,96 %
26.08.2016 21:52 25,1 C 24,4 C 22,8 C 76 % 0 lf 1017,0 hPa 0,0 l/m 0 min 0 min 0 W/m 18,8 km/h (3 Bft) 95,74 %
26.08.2016 21:54 25,1 C 23,9 C 22,8 C 76 % 0 lf 1017,0 hPa 0,0 l/m 0 min 0 min 0 W/m 20,9 km/h (4 Bft) 97,22 %
26.08.2016 21:56 25,1 C 23,9 C 22,8 C 76 % 0 lf 1017,0 hPa 0,0 l/m 0 min 0 min 0 W/m 16,7 km/h (3 Bft) 98,18 %
26.08.2016 21:58 25,0 C 23,9 C 22,8 C 76 % 0 lf 1017,0 hPa 0,0 l/m 0 min 0 min 0 W/m 18,8 km/h (3 Bft) 97,87 %
26.08.2016 22:00 24,9 C 23,9 C 22,8 C 76 % 0 lf 1017,0 hPa 0,0 l/m 0 min 0 min 0 W/m 16,7 km/h (3 Bft) 95,92 %
26.08.2016 22:02 24,8 C 23,9 C 22,8 C 76 % 0 lf 1017,0 hPa 0,0 l/m 0 min 0 min 0 W/m 14,6 km/h (3 Bft) 95,83 %
26.08.2016 22:04 24,8 C 23,9 C 22,8 C 76 % 0 lf 1017,0 hPa 0,0 l/m 0 min 0 min 0 W/m 12,6 km/h (3 Bft) 94,29 %
26.08.2016 22:06 24,7 C 23,9 C 22,8 C 76 % 0 lf 1017,1 hPa 0,0 l/m 0 min 0 min 0 W/m 16,7 km/h (3 Bft) 98,18 %
26.08.2016 22:08 24,7 C 23,9 C 22,8 C 77 % 0 lf 1017,1 hPa 0,0 l/m 0 min 0 min 0 W/m 10,5 km/h (2 Bft) 97,87 %
26.08.2016 22:10 24,7 C 23,9 C 22,2 C 77 % 0 lf 1017,1 hPa 0,0 l/m 0 min 0 min 0 W/m 16,7 km/h (3 Bft) 94,00 %
26.08.2016 22:12 24,6 C 23,9 C 22,2 C 77 % 0 lf 1017,1 hPa 0,0 l/m 0 min 0 min 0 W/m 14,6 km/h (3 Bft) 95,65 %
26.08.2016 22:14 24,6 C 23,9 C 22,2 C 77 % 0 lf 1017,2 hPa 0,0 l/m 0 min 0 min 0 W/m 10,5 km/h (2 Bft) 95,74 %
26.08.2016 22:16 24,5 C 23,9 C 22,2 C 77 % 0 lf 1017,2 hPa 0,0 l/m 0 min 0 min 0 W/m 14,6 km/h (3 Bft) 93,62 %
26.08.2016 22:18 24,5 C 23,9 C 22,2 C 77 % 0 lf 1017,1 hPa 0,0 l/m 0 min 0 min 0 W/m 14,6 km/h (3 Bft) 95,74 %
26.08.2016 22:20 24,4 C 23,3 C 22,2 C 78 % 0 lf 1017,2 hPa 0,0 l/m 0 min 0 min 0 W/m 12,6 km/h (3 Bft) 87,23 %
26.08.2016 22:22 24,4 C 23,3 C 22,2 C 78 % 0 lf 1017,2 hPa 0,0 l/m 0 min 0 min 2 W/m 12,6 km/h (3 Bft) 97,14 %
26.08.2016 22:24 24,3 C 23,3 C 22,2 C 78 % 0 lf 1017,2 hPa 0,0 l/m 0 min 0 min 5 W/m 18,8 km/h (3 Bft) 93,62 %
26.08.2016 22:26 24,3 C 23,3 C 22,2 C 78 % 0 lf 1017,2 hPa 0,0 l/m 0 min 0 min 5 W/m 20,9 km/h (4 Bft) 95,74 %
26.08.2016 22:28 24,2 C 23,3 C 22,2 C 78 % 0 lf 1017,2 hPa 0,0 l/m 0 min 0 min 5 W/m 12,6 km/h (3 Bft) 94,55 %
26.08.2016 22:30 24,2 C 23,3 C 22,2 C 78 % 0 lf 1017,3 hPa 0,0 l/m 0 min 0 min 5 W/m 18,8 km/h (3 Bft) 96,00 %
26.08.2016 22:32 24,2 C 23,3 C 22,2 C 79 % 0 lf 1017,2 hPa 0,0 l/m 0 min 0 min 5 W/m 12,6 km/h (3 Bft) 93,62 %
26.08.2016 22:34 24,1 C 23,3 C 22,2 C 79 % 0 lf 1017,2 hPa 0,0 l/m 0 min 0 min 5 W/m 16,7 km/h (3 Bft) 97,14 %
26.08.2016 22:36 24,1 C 23,3 C 22,2 C 79 % 0 lf 1017,2 hPa 0,0 l/m 0 min 0 min 5 W/m 16,7 km/h (3 Bft) 94,55 %
26.08.2016 22:38 24,0 C 23,3 C 21,7 C 79 % 0 lf 1017,2 hPa 0,0 l/m 0 min 0 min 0 W/m 16,7 km/h (3 Bft) 93,62 %
26.08.2016 22:40 24,0 C 23,3 C 21,7 C 79 % 0 lf 1017,2 hPa 0,0 l/m 0 min 0 min 0 W/m 16,7 km/h (3 Bft) 96,00 %
26.08.2016 22:42 23,9 C 23,3 C 21,7 C 79 % 0 lf 1017,3 hPa 0,0 l/m 0 min 0 min 5 W/m 12,6 km/h (3 Bft) 95,74 %
26.08.2016 22:44 23,9 C 23,3 C 21,7 C 80 % 0 lf 1017,3 hPa 0,0 l/m 0 min 0 min 5 W/m 12,6 km/h (3 Bft) 91,43 %
26.08.2016 22:46 23,8 C 23,3 C 21,7 C 80 % 0 lf 1017,2 hPa 0,0 l/m 0 min 0 min 5 W/m 12,6 km/h (3 Bft) 96,43 %
26.08.2016 22:48 23,8 C 23,3 C 21,7 C 80 % 0 lf 1017,3 hPa 0,0 l/m 0 min 0 min 5 W/m 8,4 km/h (2 Bft) 91,84 %
26.08.2016 22:50 23,8 C 22,8 C 21,7 C 80 % 0 lf 1017,3 hPa 0,0 l/m 0 min 0 min 5 W/m 10,5 km/h (2 Bft) 93,75 %
26.08.2016 22:52 23,8 C 22,8 C 21,7 C 80 % 0 lf 1017,3 hPa 0,0 l/m 0 min 0 min 5 W/m 8,4 km/h (2 Bft) 94,29 %
26.08.2016 22:54 23,7 C 22,8 C 21,7 C 80 % 0 lf 1017,3 hPa 0,0 l/m 0 min 0 min 5 W/m 12,6 km/h (3 Bft) 95,65 %
26.08.2016 22:56 23,7 C 22,8 C 21,7 C 80 % 0 lf 1017,3 hPa 0,0 l/m 0 min 0 min 5 W/m 10,5 km/h (2 Bft) 93,62 %
26.08.2016 22:58 23,7 C 22,8 C 21,7 C 80 % 0 lf 1017,3 hPa 0,0 l/m 0 min 0 min 5 W/m 14,6 km/h (3 Bft) 96,43 %
26.08.2016 23:00 23,6 C 22,8 C 21,7 C 80 % 0 lf 1017,4 hPa 0,0 l/m 0 min 0 min 0 W/m 12,6 km/h (3 Bft) 95,92 %
26.08.2016 23:02 23,6 C 22,8 C 21,7 C 81 % 0 lf 1017,4 hPa 0,0 l/m 0 min 0 min 0 W/m 10,5 km/h (2 Bft) 93,62 %
26.08.2016 23:04 23,6 C 22,8 C 21,7 C 81 % 0 lf 1017,4 hPa 0,0 l/m 0 min 0 min 0 W/m 8,4 km/h (2 Bft) 93,62 %
26.08.2016 23:06 23,5 C 22,8 C 21,1 C 81 % 0 lf 1017,4 hPa 0,0 l/m 0 min 0 min 0 W/m 8,4 km/h (2 Bft) 100,00 %
26.08.2016 23:08 23,5 C 22,8 C 21,1 C 81 % 0 lf 1017,4 hPa 0,0 l/m 0 min 0 min 5 W/m 12,6 km/h (3 Bft) 89,29 %
26.08.2016 23:10 23,4 C 22,8 C 21,1 C 81 % 0 lf 1017,4 hPa 0,0 l/m 0 min 0 min 5 W/m 14,6 km/h (3 Bft) 95,92 %
26.08.2016 23:12 23,4 C 22,8 C 21,1 C 81 % 0 lf 1017,4 hPa 0,0 l/m 0 min 0 min 5 W/m 12,6 km/h (3 Bft) 97,87 %
26.08.2016 23:14 23,3 C 22,8 C 21,1 C 82 % 0 lf 1017,4 hPa 0,0 l/m 0 min 0 min 5 W/m 12,6 km/h (3 Bft) 97,87 %
26.08.2016 23:16 23,3 C 22,8 C 21,1 C 82 % 0 lf 1017,4 hPa 0,0 l/m 0 min 0 min 0 W/m 10,5 km/h (2 Bft) 95,74 %
26.08.2016 23:18 23,3 C 22,8 C 21,1 C 82 % 0 lf 1017,4 hPa 0,0 l/m 0 min 0 min 0 W/m 12,6 km/h (3 Bft) 100,00 %
26.08.2016 23:20 23,3 C 22,8 C 21,1 C 82 % 0 lf 1017,4 hPa 0,0 l/m 0 min 0 min 0 W/m 10,5 km/h (2 Bft) 100,00 %
26.08.2016 23:22 23,2 C 22,2 C 21,1 C 82 % 0 lf 1017,4 hPa 0,0 l/m 0 min 0 min 0 W/m 10,5 km/h (2 Bft) 95,74 %
26.08.2016 23:24 23,2 C 22,2 C 21,1 C 82 % 0 lf 1017,4 hPa 0,0 l/m 0 min 0 min 5 W/m 10,5 km/h (2 Bft) 94,29 %
26.08.2016 23:26 23,2 C 22,2 C 21,1 C 82 % 0 lf 1017,4 hPa 0,0 l/m 0 min 0 min 5 W/m 10,5 km/h (2 Bft) 95,74 %
26.08.2016 23:28 23,1 C 22,2 C 21,1 C 82 % 0 lf 1017,5 hPa 0,0 l/m 0 min 0 min 5 W/m 10,5 km/h (2 Bft) 97,87 %
26.08.2016 23:30 23,1 C 22,2 C 21,1 C 82 % 0 lf 1017,5 hPa 0,0 l/m 0 min 0 min 5 W/m 14,6 km/h (3 Bft) 96,36 %
26.08.2016 23:32 23,1 C 22,2 C 21,1 C 83 % 0 lf 1017,5 hPa 0,0 l/m 0 min 0 min 5 W/m 10,5 km/h (2 Bft) 98,00 %
26.08.2016 23:34 23,0 C 22,2 C 21,1 C 83 % 0 lf 1017,5 hPa 0,0 l/m 0 min 0 min 5 W/m 10,5 km/h (2 Bft) 97,87 %
26.08.2016 23:36 23,0 C 22,2 C 20,6 C 83 % 0 lf 1017,5 hPa 0,0 l/m 0 min 0 min 5 W/m 14,6 km/h (3 Bft) 97,14 %
26.08.2016 23:38 22,9 C 22,2 C 21,1 C 83 % 0 lf 1017,5 hPa 0,0 l/m 0 min 0 min 5 W/m 12,6 km/h (3 Bft) 96,36 %
26.08.2016 23:40 22,9 C 22,2 C 20,6 C 83 % 0 lf 1017,5 hPa 0,0 l/m 0 min 0 min 5 W/m 10,5 km/h (2 Bft) 98,00 %
26.08.2016 23:42 22,9 C 22,2 C 20,6 C 83 % 0 lf 1017,6 hPa 0,0 l/m 0 min 0 min 5 W/m 14,6 km/h (3 Bft) 93,62 %
26.08.2016 23:44 22,9 C 22,2 C 20,6 C 83 % 0 lf 1017,5 hPa 0,0 l/m 0 min 0 min 5 W/m 8,4 km/h (2 Bft) 97,14 %
26.08.2016 23:46 22,8 C 22,2 C 20,6 C 83 % 0 lf 1017,6 hPa 0,0 l/m 0 min 0 min 5 W/m 12,6 km/h (3 Bft) 98,18 %
26.08.2016 23:48 22,8 C 22,2 C 20,6 C 83 % 0 lf 1017,5 hPa 0,0 l/m 0 min 0 min 5 W/m 10,5 km/h (2 Bft) 92,00 %
26.08.2016 23:50 22,8 C 22,2 C 20,6 C 83 % 0 lf 1017,5 hPa 0,0 l/m 0 min 0 min 5 W/m 12,6 km/h (3 Bft) 95,74 %
26.08.2016 23:52 22,7 C 22,2 C 20,6 C 83 % 0 lf 1017,5 hPa 0,0 l/m 0 min 0 min 5 W/m 8,4 km/h (2 Bft) 100,00 %
26.08.2016 23:54 22,7 C 22,2 C 20,6 C 83 % 0 lf 1017,4 hPa 0,0 l/m 0 min 0 min 5 W/m 10,5 km/h (2 Bft) 92,86 %
26.08.2016 23:56 22,7 C 22,2 C 20,6 C 83 % 0 lf 1017,5 hPa 0,0 l/m 0 min 0 min 5 W/m 8,4 km/h (2 Bft) 94,00 %
26.08.2016 23:58 22,7 C 21,7 C 20,6 C 84 % 0 lf 1017,5 hPa 0,0 l/m 0 min 0 min 0 W/m 8,4 km/h (2 Bft) 93,62 %
_ Min-Zeit 06:50 06:06 06:06 12:32 00:00 02:50 - - - - 06:06 01:30
Minimum _ 18,8 C 18,3 C 16,1 C 57 % 0 lf 1012,8 hPa - - - - 2,1 km/h (1 Bft) 87,23 %
_ Max-Zeit 13:50 13:06 11:54 07:08 06:06 23:42 00:00 06:50 00:00 10:56 15:34 00:02
Maximum _ 32,9 C 43,9 C 37,8 C 87 % 1 lf 1017,6 hPa 0,0 l/m 2 min 0 min 763 W/m 20,9 km/h
NW (4 Bft)
100,00 %
Durchschnitt _ 26,1 C 28,6 C 25,0 C 70 % 0 lf 1014,7 hPa #0,0 l/m #12:44 h #0 min. 292 W/m 10,3 km/h (2 Bft) 96,15 %
© 2016 W. Hausmann